<?xml version="1.0" encoding="UTF-8" standalone="yes"?>
<gpx
 xmlns="http://www.topografix.com/GPX/1/1"
 creator="OziExplorer Version 396 - http://www.oziexplorer.com"
 version="1.1"
 xmlns:xsi="http://www.w3.org/2001/XMLSchema-instance"
 xsi:schemaLocation="http://www.topografix.com/GPX/1/1 http://www.topografix.com/GPX/1/1/gpx.xsd">
<metadata>
 <time>2025-12-29T08:43:38Z</time>
 <bounds minlat="30.907830" minlon="35.210130" maxlat="30.957750" maxlon="35.378540"/>
</metadata>
<wpt lat="30.9252700" lon="35.2101300">
 <time>2025-12-29T10:41:50.319Z</time>
 <name>GEVEY-SHAISH</name>
</wpt>
<wpt lat="30.9418900" lon="35.3683100">
 <time>2025-12-29T10:41:50.333Z</time>
 <name>Start\Fin</name>
</wpt>
<wpt lat="30.9205700" lon="35.2790000">
 <time>2025-12-29T10:41:50.334Z</time>
 <name>Trassa90</name>
</wpt>
<wpt lat="30.9265400" lon="35.2631800">
 <time>2025-12-29T10:41:50.335Z</time>
 <name>Marpeset</name>
</wpt>
<wpt lat="30.9561030" lon="35.3638870">
 <time>2025-12-29T10:41:50.336Z</time>
 <name>HiddenSpring</name>
</wpt>
<trk>
 <name>EinTamar-Mirpeset-Harits,34km,350m</name>
 <desc>EinTamar-Mirpeset-Harits,34km,350m</desc>
<trkseg>
<trkpt lat="30.9419700" lon="35.3682300">
<ele>-355.370026</ele>
<time>2025-12-29T10:41:50.336Z</time>
</trkpt>
<trkpt lat="30.9419500" lon="35.3682400">
<ele>-355.339996</ele>
<time>2025-12-29T10:41:50.336Z</time>
</trkpt>
<trkpt lat="30.9418500" lon="35.3680300">
<ele>-355.320007</ele>
<time>2025-12-29T10:41:50.336Z</time>
</trkpt>
<trkpt lat="30.9416200" lon="35.3677100">
<ele>-353.669983</ele>
<time>2025-12-29T10:41:50.336Z</time>
</trkpt>
<trkpt lat="30.9413200" lon="35.3673300">
<ele>-352.980011</ele>
<time>2025-12-29T10:41:50.336Z</time>
</trkpt>
<trkpt lat="30.9402900" lon="35.3660600">
<ele>-346.399994</ele>
<time>2025-12-29T10:41:50.336Z</time>
</trkpt>
<trkpt lat="30.9399100" lon="35.3657500">
<ele>-345.100006</ele>
<time>2025-12-29T10:41:50.336Z</time>
</trkpt>
<trkpt lat="30.9395200" lon="35.3655900">
<ele>-343.709991</ele>
<time>2025-12-29T10:41:50.336Z</time>
</trkpt>
<trkpt lat="30.9382900" lon="35.3652900">
<ele>-336.070007</ele>
<time>2025-12-29T10:41:50.336Z</time>
</trkpt>
<trkpt lat="30.9378100" lon="35.3649900">
<ele>-341.700012</ele>
<time>2025-12-29T10:41:50.336Z</time>
</trkpt>
<trkpt lat="30.9370200" lon="35.3643300">
<ele>-344.169983</ele>
<time>2025-12-29T10:41:50.336Z</time>
</trkpt>
<trkpt lat="30.9367400" lon="35.3639700">
<ele>-343.720001</ele>
<time>2025-12-29T10:41:50.336Z</time>
</trkpt>
<trkpt lat="30.9362400" lon="35.3634800">
<ele>-337.119995</ele>
<time>2025-12-29T10:41:50.336Z</time>
</trkpt>
<trkpt lat="30.9358700" lon="35.3629100">
<ele>-333.460022</ele>
<time>2025-12-29T10:41:50.336Z</time>
</trkpt>
<trkpt lat="30.9352700" lon="35.3614200">
<ele>-336.700012</ele>
<time>2025-12-29T10:41:50.336Z</time>
</trkpt>
<trkpt lat="30.9351500" lon="35.3599000">
<ele>-337.089996</ele>
<time>2025-12-29T10:41:50.336Z</time>
</trkpt>
<trkpt lat="30.9348900" lon="35.3582800">
<ele>-341.220001</ele>
<time>2025-12-29T10:41:50.336Z</time>
</trkpt>
<trkpt lat="30.9344600" lon="35.3572600">
<ele>-340.640015</ele>
<time>2025-12-29T10:41:50.336Z</time>
</trkpt>
<trkpt lat="30.9341600" lon="35.3567900">
<ele>-342.600006</ele>
<time>2025-12-29T10:41:50.336Z</time>
</trkpt>
<trkpt lat="30.9337000" lon="35.3562300">
<ele>-335.940002</ele>
<time>2025-12-29T10:41:50.336Z</time>
</trkpt>
<trkpt lat="30.9327000" lon="35.3557700">
<ele>-338.380005</ele>
<time>2025-12-29T10:41:50.336Z</time>
</trkpt>
<trkpt lat="30.9317900" lon="35.3555700">
<ele>-329.339996</ele>
<time>2025-12-29T10:41:50.336Z</time>
</trkpt>
<trkpt lat="30.9314800" lon="35.3556300">
<ele>-329.579987</ele>
<time>2025-12-29T10:41:50.336Z</time>
</trkpt>
<trkpt lat="30.9310900" lon="35.3556300">
<ele>-324.959991</ele>
<time>2025-12-29T10:41:50.336Z</time>
</trkpt>
<trkpt lat="30.9285400" lon="35.3556100">
<ele>-329.550018</ele>
<time>2025-12-29T10:41:50.336Z</time>
</trkpt>
<trkpt lat="30.9281800" lon="35.3554800">
<ele>-329.679993</ele>
<time>2025-12-29T10:41:50.336Z</time>
</trkpt>
<trkpt lat="30.9277900" lon="35.3551400">
<ele>-329.850006</ele>
<time>2025-12-29T10:41:50.336Z</time>
</trkpt>
<trkpt lat="30.9273400" lon="35.3544900">
<ele>-330.679993</ele>
<time>2025-12-29T10:41:50.336Z</time>
</trkpt>
<trkpt lat="30.9267500" lon="35.3533600">
<ele>-328.299988</ele>
<time>2025-12-29T10:41:50.336Z</time>
</trkpt>
<trkpt lat="30.9259700" lon="35.3527100">
<ele>-324.179993</ele>
<time>2025-12-29T10:41:50.336Z</time>
</trkpt>
<trkpt lat="30.9247400" lon="35.3518400">
<ele>-315.780029</ele>
<time>2025-12-29T10:41:50.336Z</time>
</trkpt>
<trkpt lat="30.9243400" lon="35.3515500">
<ele>-320.060028</ele>
<time>2025-12-29T10:41:50.336Z</time>
</trkpt>
<trkpt lat="30.9241800" lon="35.3512800">
<ele>-320.779999</ele>
<time>2025-12-29T10:41:50.336Z</time>
</trkpt>
<trkpt lat="30.9238700" lon="35.3504500">
<ele>-324.519989</ele>
<time>2025-12-29T10:41:50.336Z</time>
</trkpt>
<trkpt lat="30.9234000" lon="35.3499500">
<ele>-325.289978</ele>
<time>2025-12-29T10:41:50.336Z</time>
</trkpt>
<trkpt lat="30.9231300" lon="35.3496000">
<ele>-324.179993</ele>
<time>2025-12-29T10:41:50.336Z</time>
</trkpt>
<trkpt lat="30.9229500" lon="35.3492300">
<ele>-321.989990</ele>
<time>2025-12-29T10:41:50.336Z</time>
</trkpt>
<trkpt lat="30.9226600" lon="35.3488300">
<ele>-321.330017</ele>
<time>2025-12-29T10:41:50.336Z</time>
</trkpt>
<trkpt lat="30.9223200" lon="35.3480900">
<ele>-320.459991</ele>
<time>2025-12-29T10:41:50.336Z</time>
</trkpt>
<trkpt lat="30.9221400" lon="35.3476200">
<ele>-317.010010</ele>
<time>2025-12-29T10:41:50.336Z</time>
</trkpt>
<trkpt lat="30.9220600" lon="35.3466600">
<ele>-321.219971</ele>
<time>2025-12-29T10:41:50.336Z</time>
</trkpt>
<trkpt lat="30.9219100" lon="35.3460600">
<ele>-324.059998</ele>
<time>2025-12-29T10:41:50.336Z</time>
</trkpt>
<trkpt lat="30.9216000" lon="35.3456100">
<ele>-319.760010</ele>
<time>2025-12-29T10:41:50.336Z</time>
</trkpt>
<trkpt lat="30.9211300" lon="35.3450000">
<ele>-317.069977</ele>
<time>2025-12-29T10:41:50.336Z</time>
</trkpt>
<trkpt lat="30.9205600" lon="35.3440600">
<ele>-318.260010</ele>
<time>2025-12-29T10:41:50.336Z</time>
</trkpt>
<trkpt lat="30.9205000" lon="35.3439200">
<ele>-316.420013</ele>
<time>2025-12-29T10:41:50.336Z</time>
</trkpt>
<trkpt lat="30.9201500" lon="35.3434100">
<ele>-310.029999</ele>
<time>2025-12-29T10:41:50.336Z</time>
</trkpt>
<trkpt lat="30.9197000" lon="35.3431400">
<ele>-312.880005</ele>
<time>2025-12-29T10:41:50.336Z</time>
</trkpt>
<trkpt lat="30.9190400" lon="35.3427900">
<ele>-314.150024</ele>
<time>2025-12-29T10:41:50.336Z</time>
</trkpt>
<trkpt lat="30.9185900" lon="35.3423600">
<ele>-313.540009</ele>
<time>2025-12-29T10:41:50.336Z</time>
</trkpt>
<trkpt lat="30.9184300" lon="35.3420500">
<ele>-314.250000</ele>
<time>2025-12-29T10:41:50.336Z</time>
</trkpt>
<trkpt lat="30.9181500" lon="35.3416700">
<ele>-313.680023</ele>
<time>2025-12-29T10:41:50.336Z</time>
</trkpt>
<trkpt lat="30.9177000" lon="35.3412400">
<ele>-311.179993</ele>
<time>2025-12-29T10:41:50.336Z</time>
</trkpt>
<trkpt lat="30.9175400" lon="35.3408900">
<ele>-310.029999</ele>
<time>2025-12-29T10:41:50.336Z</time>
</trkpt>
<trkpt lat="30.9175100" lon="35.3403000">
<ele>-307.950012</ele>
<time>2025-12-29T10:41:50.336Z</time>
</trkpt>
<trkpt lat="30.9175600" lon="35.3399600">
<ele>-307.630005</ele>
<time>2025-12-29T10:41:50.336Z</time>
</trkpt>
<trkpt lat="30.9179400" lon="35.3390700">
<ele>-310.559998</ele>
<time>2025-12-29T10:41:50.336Z</time>
</trkpt>
<trkpt lat="30.9179700" lon="35.3385900">
<ele>-313.190002</ele>
<time>2025-12-29T10:41:50.336Z</time>
</trkpt>
<trkpt lat="30.9179400" lon="35.3380200">
<ele>-311.559998</ele>
<time>2025-12-29T10:41:50.336Z</time>
</trkpt>
<trkpt lat="30.9177700" lon="35.3372000">
<ele>-312.000000</ele>
<time>2025-12-29T10:41:50.336Z</time>
</trkpt>
<trkpt lat="30.9173100" lon="35.3357700">
<ele>-310.239990</ele>
<time>2025-12-29T10:41:50.336Z</time>
</trkpt>
<trkpt lat="30.9171400" lon="35.3347600">
<ele>-306.149994</ele>
<time>2025-12-29T10:41:50.336Z</time>
</trkpt>
<trkpt lat="30.9169500" lon="35.3326400">
<ele>-300.690002</ele>
<time>2025-12-29T10:41:50.336Z</time>
</trkpt>
<trkpt lat="30.9168600" lon="35.3320500">
<ele>-301.619995</ele>
<time>2025-12-29T10:41:50.336Z</time>
</trkpt>
<trkpt lat="30.9166100" lon="35.3313700">
<ele>-296.169983</ele>
<time>2025-12-29T10:41:50.336Z</time>
</trkpt>
<trkpt lat="30.9159300" lon="35.3303700">
<ele>-273.450012</ele>
<time>2025-12-29T10:41:50.336Z</time>
</trkpt>
<trkpt lat="30.9155900" lon="35.3301900">
<ele>-273.760010</ele>
<time>2025-12-29T10:41:50.336Z</time>
</trkpt>
<trkpt lat="30.9150000" lon="35.3300800">
<ele>-290.149994</ele>
<time>2025-12-29T10:41:50.336Z</time>
</trkpt>
<trkpt lat="30.9135200" lon="35.3297200">
<ele>-299.649994</ele>
<time>2025-12-29T10:41:50.336Z</time>
</trkpt>
<trkpt lat="30.9127400" lon="35.3295100">
<ele>-298.519989</ele>
<time>2025-12-29T10:41:50.336Z</time>
</trkpt>
<trkpt lat="30.9120500" lon="35.3292500">
<ele>-297.540009</ele>
<time>2025-12-29T10:41:50.336Z</time>
</trkpt>
<trkpt lat="30.9116700" lon="35.3290900">
<ele>-297.010010</ele>
<time>2025-12-29T10:41:50.336Z</time>
</trkpt>
<trkpt lat="30.9112000" lon="35.3289200">
<ele>-296.040009</ele>
<time>2025-12-29T10:41:50.336Z</time>
</trkpt>
<trkpt lat="30.9108100" lon="35.3282500">
<ele>-295.640015</ele>
<time>2025-12-29T10:41:50.336Z</time>
</trkpt>
<trkpt lat="30.9107000" lon="35.3277600">
<ele>-291.279999</ele>
<time>2025-12-29T10:41:50.336Z</time>
</trkpt>
<trkpt lat="30.9105800" lon="35.3258900">
<ele>-280.809998</ele>
<time>2025-12-29T10:41:50.336Z</time>
</trkpt>
<trkpt lat="30.9103200" lon="35.3254200">
<ele>-287.259979</ele>
<time>2025-12-29T10:41:50.336Z</time>
</trkpt>
<trkpt lat="30.9100100" lon="35.3251300">
<ele>-293.380005</ele>
<time>2025-12-29T10:41:50.336Z</time>
</trkpt>
<trkpt lat="30.9097900" lon="35.3247600">
<ele>-291.910004</ele>
<time>2025-12-29T10:41:50.336Z</time>
</trkpt>
<trkpt lat="30.9096400" lon="35.3242800">
<ele>-290.589996</ele>
<time>2025-12-29T10:41:50.336Z</time>
</trkpt>
<trkpt lat="30.9096600" lon="35.3236900">
<ele>-295.139984</ele>
<time>2025-12-29T10:41:50.336Z</time>
</trkpt>
<trkpt lat="30.9094500" lon="35.3229800">
<ele>-292.769989</ele>
<time>2025-12-29T10:41:50.336Z</time>
</trkpt>
<trkpt lat="30.9091100" lon="35.3224500">
<ele>-292.019989</ele>
<time>2025-12-29T10:41:50.336Z</time>
</trkpt>
<trkpt lat="30.9087900" lon="35.3216600">
<ele>-288.910004</ele>
<time>2025-12-29T10:41:50.336Z</time>
</trkpt>
<trkpt lat="30.9087900" lon="35.3216600">
<ele>-288.910004</ele>
<time>2025-12-29T10:41:50.336Z</time>
</trkpt>
<trkpt lat="30.9087800" lon="35.3216200">
<ele>-288.359985</ele>
<time>2025-12-29T10:41:50.336Z</time>
</trkpt>
<trkpt lat="30.9086600" lon="35.3211800">
<ele>-284.970001</ele>
<time>2025-12-29T10:41:50.336Z</time>
</trkpt>
<trkpt lat="30.9085400" lon="35.3209700">
<ele>-285.260010</ele>
<time>2025-12-29T10:41:50.336Z</time>
</trkpt>
<trkpt lat="30.9085600" lon="35.3206400">
<ele>-284.739990</ele>
<time>2025-12-29T10:41:50.336Z</time>
</trkpt>
<trkpt lat="30.9085200" lon="35.3201300">
<ele>-282.429993</ele>
<time>2025-12-29T10:41:50.336Z</time>
</trkpt>
<trkpt lat="30.9085100" lon="35.3196200">
<ele>-281.230011</ele>
<time>2025-12-29T10:41:50.336Z</time>
</trkpt>
<trkpt lat="30.9085200" lon="35.3191500">
<ele>-280.640015</ele>
<time>2025-12-29T10:41:50.336Z</time>
</trkpt>
<trkpt lat="30.9085100" lon="35.3187600">
<ele>-281.119995</ele>
<time>2025-12-29T10:41:50.336Z</time>
</trkpt>
<trkpt lat="30.9083900" lon="35.3178900">
<ele>-282.550018</ele>
<time>2025-12-29T10:41:50.336Z</time>
</trkpt>
<trkpt lat="30.9083700" lon="35.3176400">
<ele>-282.140015</ele>
<time>2025-12-29T10:41:50.336Z</time>
</trkpt>
<trkpt lat="30.9083900" lon="35.3173100">
<ele>-281.369995</ele>
<time>2025-12-29T10:41:50.336Z</time>
</trkpt>
<trkpt lat="30.9084800" lon="35.3167400">
<ele>-277.350006</ele>
<time>2025-12-29T10:41:50.336Z</time>
</trkpt>
<trkpt lat="30.9085100" lon="35.3164100">
<ele>-273.859985</ele>
<time>2025-12-29T10:41:50.336Z</time>
</trkpt>
<trkpt lat="30.9085200" lon="35.3161500">
<ele>-270.970001</ele>
<time>2025-12-29T10:41:50.336Z</time>
</trkpt>
<trkpt lat="30.9084900" lon="35.3156400">
<ele>-271.850006</ele>
<time>2025-12-29T10:41:50.336Z</time>
</trkpt>
<trkpt lat="30.9085000" lon="35.3153600">
<ele>-272.880005</ele>
<time>2025-12-29T10:41:50.336Z</time>
</trkpt>
<trkpt lat="30.9085100" lon="35.3152900">
<ele>-272.980011</ele>
<time>2025-12-29T10:41:50.336Z</time>
</trkpt>
<trkpt lat="30.9085600" lon="35.3151500">
<ele>-273.079987</ele>
<time>2025-12-29T10:41:50.336Z</time>
</trkpt>
<trkpt lat="30.9086500" lon="35.3150600">
<ele>-272.850006</ele>
<time>2025-12-29T10:41:50.336Z</time>
</trkpt>
<trkpt lat="30.9089800" lon="35.3148500">
<ele>-272.960022</ele>
<time>2025-12-29T10:41:50.336Z</time>
</trkpt>
<trkpt lat="30.9092400" lon="35.3146400">
<ele>-273.049988</ele>
<time>2025-12-29T10:41:50.336Z</time>
</trkpt>
<trkpt lat="30.9095800" lon="35.3144800">
<ele>-273.320007</ele>
<time>2025-12-29T10:41:50.336Z</time>
</trkpt>
<trkpt lat="30.9099100" lon="35.3141100">
<ele>-270.100006</ele>
<time>2025-12-29T10:41:50.336Z</time>
</trkpt>
<trkpt lat="30.9100700" lon="35.3139000">
<ele>-268.649994</ele>
<time>2025-12-29T10:41:50.336Z</time>
</trkpt>
<trkpt lat="30.9103400" lon="35.3136700">
<ele>-270.209991</ele>
<time>2025-12-29T10:41:50.336Z</time>
</trkpt>
<trkpt lat="30.9104600" lon="35.3134100">
<ele>-270.809998</ele>
<time>2025-12-29T10:41:50.336Z</time>
</trkpt>
<trkpt lat="30.9104600" lon="35.3132600">
<ele>-269.850006</ele>
<time>2025-12-29T10:41:50.336Z</time>
</trkpt>
<trkpt lat="30.9104100" lon="35.3131100">
<ele>-268.410004</ele>
<time>2025-12-29T10:41:50.336Z</time>
</trkpt>
<trkpt lat="30.9102300" lon="35.3128000">
<ele>-264.979980</ele>
<time>2025-12-29T10:41:50.336Z</time>
</trkpt>
<trkpt lat="30.9101200" lon="35.3125400">
<ele>-262.369995</ele>
<time>2025-12-29T10:41:50.336Z</time>
</trkpt>
<trkpt lat="30.9101300" lon="35.3123300">
<ele>-261.279999</ele>
<time>2025-12-29T10:41:50.336Z</time>
</trkpt>
<trkpt lat="30.9101800" lon="35.3120100">
<ele>-258.290009</ele>
<time>2025-12-29T10:41:50.336Z</time>
</trkpt>
<trkpt lat="30.9102900" lon="35.3117400">
<ele>-256.570007</ele>
<time>2025-12-29T10:41:50.336Z</time>
</trkpt>
<trkpt lat="30.9105000" lon="35.3115700">
<ele>-259.440002</ele>
<time>2025-12-29T10:41:50.336Z</time>
</trkpt>
<trkpt lat="30.9108600" lon="35.3113500">
<ele>-264.140015</ele>
<time>2025-12-29T10:41:50.336Z</time>
</trkpt>
<trkpt lat="30.9110000" lon="35.3111400">
<ele>-265.420013</ele>
<time>2025-12-29T10:41:50.336Z</time>
</trkpt>
<trkpt lat="30.9110300" lon="35.3109700">
<ele>-263.429993</ele>
<time>2025-12-29T10:41:50.336Z</time>
</trkpt>
<trkpt lat="30.9110300" lon="35.3108400">
<ele>-261.559998</ele>
<time>2025-12-29T10:41:50.336Z</time>
</trkpt>
<trkpt lat="30.9109600" lon="35.3106500">
<ele>-260.139984</ele>
<time>2025-12-29T10:41:50.336Z</time>
</trkpt>
<trkpt lat="30.9109200" lon="35.3105900">
<ele>-260.269989</ele>
<time>2025-12-29T10:41:50.336Z</time>
</trkpt>
<trkpt lat="30.9106800" lon="35.3103800">
<ele>-258.149994</ele>
<time>2025-12-29T10:41:50.336Z</time>
</trkpt>
<trkpt lat="30.9105700" lon="35.3102600">
<ele>-256.750000</ele>
<time>2025-12-29T10:41:50.336Z</time>
</trkpt>
<trkpt lat="30.9104900" lon="35.3101100">
<ele>-255.989990</ele>
<time>2025-12-29T10:41:50.336Z</time>
</trkpt>
<trkpt lat="30.9104000" lon="35.3098300">
<ele>-256.869995</ele>
<time>2025-12-29T10:41:50.336Z</time>
</trkpt>
<trkpt lat="30.9103400" lon="35.3097300">
<ele>-258.420013</ele>
<time>2025-12-29T10:41:50.336Z</time>
</trkpt>
<trkpt lat="30.9102100" lon="35.3095700">
<ele>-256.260010</ele>
<time>2025-12-29T10:41:50.336Z</time>
</trkpt>
<trkpt lat="30.9100600" lon="35.3093100">
<ele>-252.990005</ele>
<time>2025-12-29T10:41:50.336Z</time>
</trkpt>
<trkpt lat="30.9100000" lon="35.3092500">
<ele>-253.200012</ele>
<time>2025-12-29T10:41:50.336Z</time>
</trkpt>
<trkpt lat="30.9098800" lon="35.3091800">
<ele>-254.700012</ele>
<time>2025-12-29T10:41:50.336Z</time>
</trkpt>
<trkpt lat="30.9097700" lon="35.3091400">
<ele>-256.759979</ele>
<time>2025-12-29T10:41:50.336Z</time>
</trkpt>
<trkpt lat="30.9091500" lon="35.3089800">
<ele>-256.220001</ele>
<time>2025-12-29T10:41:50.336Z</time>
</trkpt>
<trkpt lat="30.9091100" lon="35.3089600">
<ele>-256.209991</ele>
<time>2025-12-29T10:41:50.336Z</time>
</trkpt>
<trkpt lat="30.9090500" lon="35.3088500">
<ele>-256.940002</ele>
<time>2025-12-29T10:41:50.336Z</time>
</trkpt>
<trkpt lat="30.9090100" lon="35.3087200">
<ele>-257.260010</ele>
<time>2025-12-29T10:41:50.336Z</time>
</trkpt>
<trkpt lat="30.9090100" lon="35.3084800">
<ele>-256.990021</ele>
<time>2025-12-29T10:41:50.336Z</time>
</trkpt>
<trkpt lat="30.9090900" lon="35.3081600">
<ele>-253.160004</ele>
<time>2025-12-29T10:41:50.336Z</time>
</trkpt>
<trkpt lat="30.9090900" lon="35.3080100">
<ele>-250.959991</ele>
<time>2025-12-29T10:41:50.336Z</time>
</trkpt>
<trkpt lat="30.9091500" lon="35.3078800">
<ele>-249.979996</ele>
<time>2025-12-29T10:41:50.336Z</time>
</trkpt>
<trkpt lat="30.9092500" lon="35.3077500">
<ele>-250.130005</ele>
<time>2025-12-29T10:41:50.336Z</time>
</trkpt>
<trkpt lat="30.9093400" lon="35.3077000">
<ele>-251.389999</ele>
<time>2025-12-29T10:41:50.336Z</time>
</trkpt>
<trkpt lat="30.9094800" lon="35.3076800">
<ele>-252.799988</ele>
<time>2025-12-29T10:41:50.336Z</time>
</trkpt>
<trkpt lat="30.9100000" lon="35.3077900">
<ele>-246.780014</ele>
<time>2025-12-29T10:41:50.336Z</time>
</trkpt>
<trkpt lat="30.9100400" lon="35.3077800">
<ele>-245.809998</ele>
<time>2025-12-29T10:41:50.336Z</time>
</trkpt>
<trkpt lat="30.9100800" lon="35.3077200">
<ele>-244.929993</ele>
<time>2025-12-29T10:41:50.336Z</time>
</trkpt>
<trkpt lat="30.9100900" lon="35.3076400">
<ele>-244.920013</ele>
<time>2025-12-29T10:41:50.336Z</time>
</trkpt>
<trkpt lat="30.9100800" lon="35.3075600">
<ele>-245.589996</ele>
<time>2025-12-29T10:41:50.336Z</time>
</trkpt>
<trkpt lat="30.9100400" lon="35.3074700">
<ele>-247.559998</ele>
<time>2025-12-29T10:41:50.336Z</time>
</trkpt>
<trkpt lat="30.9099800" lon="35.3073900">
<ele>-249.759995</ele>
<time>2025-12-29T10:41:50.336Z</time>
</trkpt>
<trkpt lat="30.9099500" lon="35.3073500">
<ele>-250.440002</ele>
<time>2025-12-29T10:41:50.336Z</time>
</trkpt>
<trkpt lat="30.9097900" lon="35.3072800">
<ele>-253.569992</ele>
<time>2025-12-29T10:41:50.336Z</time>
</trkpt>
<trkpt lat="30.9095200" lon="35.3072000">
<ele>-254.330002</ele>
<time>2025-12-29T10:41:50.336Z</time>
</trkpt>
<trkpt lat="30.9094600" lon="35.3071100">
<ele>-254.440002</ele>
<time>2025-12-29T10:41:50.336Z</time>
</trkpt>
<trkpt lat="30.9094600" lon="35.3069700">
<ele>-254.910004</ele>
<time>2025-12-29T10:41:50.336Z</time>
</trkpt>
<trkpt lat="30.9094900" lon="35.3068700">
<ele>-254.100006</ele>
<time>2025-12-29T10:41:50.336Z</time>
</trkpt>
<trkpt lat="30.9095900" lon="35.3067000">
<ele>-253.319992</ele>
<time>2025-12-29T10:41:50.336Z</time>
</trkpt>
<trkpt lat="30.9097100" lon="35.3065400">
<ele>-254.350006</ele>
<time>2025-12-29T10:41:50.336Z</time>
</trkpt>
<trkpt lat="30.9097600" lon="35.3065100">
<ele>-254.279999</ele>
<time>2025-12-29T10:41:50.336Z</time>
</trkpt>
<trkpt lat="30.9098200" lon="35.3065000">
<ele>-254.050003</ele>
<time>2025-12-29T10:41:50.336Z</time>
</trkpt>
<trkpt lat="30.9101000" lon="35.3064600">
<ele>-251.819992</ele>
<time>2025-12-29T10:41:50.336Z</time>
</trkpt>
<trkpt lat="30.9102300" lon="35.3063900">
<ele>-250.019989</ele>
<time>2025-12-29T10:41:50.336Z</time>
</trkpt>
<trkpt lat="30.9102700" lon="35.3063500">
<ele>-249.710007</ele>
<time>2025-12-29T10:41:50.336Z</time>
</trkpt>
<trkpt lat="30.9103800" lon="35.3061900">
<ele>-250.019989</ele>
<time>2025-12-29T10:41:50.336Z</time>
</trkpt>
<trkpt lat="30.9104500" lon="35.3060600">
<ele>-249.940002</ele>
<time>2025-12-29T10:41:50.336Z</time>
</trkpt>
<trkpt lat="30.9104900" lon="35.3059100">
<ele>-249.559998</ele>
<time>2025-12-29T10:41:50.336Z</time>
</trkpt>
<trkpt lat="30.9105100" lon="35.3057300">
<ele>-248.809998</ele>
<time>2025-12-29T10:41:50.336Z</time>
</trkpt>
<trkpt lat="30.9105000" lon="35.3054500">
<ele>-247.570007</ele>
<time>2025-12-29T10:41:50.336Z</time>
</trkpt>
<trkpt lat="30.9104400" lon="35.3051400">
<ele>-247.419998</ele>
<time>2025-12-29T10:41:50.336Z</time>
</trkpt>
<trkpt lat="30.9102500" lon="35.3045400">
<ele>-248.110016</ele>
<time>2025-12-29T10:41:50.336Z</time>
</trkpt>
<trkpt lat="30.9101700" lon="35.3042200">
<ele>-248.349991</ele>
<time>2025-12-29T10:41:50.336Z</time>
</trkpt>
<trkpt lat="30.9101700" lon="35.3036900">
<ele>-253.379990</ele>
<time>2025-12-29T10:41:50.336Z</time>
</trkpt>
<trkpt lat="30.9101300" lon="35.3033200">
<ele>-255.170013</ele>
<time>2025-12-29T10:41:50.336Z</time>
</trkpt>
<trkpt lat="30.9101400" lon="35.3030500">
<ele>-255.979996</ele>
<time>2025-12-29T10:41:50.336Z</time>
</trkpt>
<trkpt lat="30.9102200" lon="35.3028900">
<ele>-256.100006</ele>
<time>2025-12-29T10:41:50.336Z</time>
</trkpt>
<trkpt lat="30.9103700" lon="35.3026700">
<ele>-255.139999</ele>
<time>2025-12-29T10:41:50.336Z</time>
</trkpt>
<trkpt lat="30.9104400" lon="35.3025200">
<ele>-254.039993</ele>
<time>2025-12-29T10:41:50.336Z</time>
</trkpt>
<trkpt lat="30.9104600" lon="35.3024300">
<ele>-253.800003</ele>
<time>2025-12-29T10:41:50.336Z</time>
</trkpt>
<trkpt lat="30.9104800" lon="35.3023400">
<ele>-253.619995</ele>
<time>2025-12-29T10:41:50.336Z</time>
</trkpt>
<trkpt lat="30.9104700" lon="35.3021700">
<ele>-253.610016</ele>
<time>2025-12-29T10:41:50.336Z</time>
</trkpt>
<trkpt lat="30.9104300" lon="35.3018100">
<ele>-251.309998</ele>
<time>2025-12-29T10:41:50.336Z</time>
</trkpt>
<trkpt lat="30.9104000" lon="35.3015800">
<ele>-249.909988</ele>
<time>2025-12-29T10:41:50.336Z</time>
</trkpt>
<trkpt lat="30.9103400" lon="35.3014500">
<ele>-250.700012</ele>
<time>2025-12-29T10:41:50.336Z</time>
</trkpt>
<trkpt lat="30.9102000" lon="35.3012700">
<ele>-251.660004</ele>
<time>2025-12-29T10:41:50.336Z</time>
</trkpt>
<trkpt lat="30.9100100" lon="35.3011000">
<ele>-252.770004</ele>
<time>2025-12-29T10:41:50.336Z</time>
</trkpt>
<trkpt lat="30.9099000" lon="35.3010300">
<ele>-252.289993</ele>
<time>2025-12-29T10:41:50.336Z</time>
</trkpt>
<trkpt lat="30.9098000" lon="35.3009900">
<ele>-252.540009</ele>
<time>2025-12-29T10:41:50.336Z</time>
</trkpt>
<trkpt lat="30.9096700" lon="35.3010100">
<ele>-252.830002</ele>
<time>2025-12-29T10:41:50.336Z</time>
</trkpt>
<trkpt lat="30.9095800" lon="35.3010600">
<ele>-253.020004</ele>
<time>2025-12-29T10:41:50.336Z</time>
</trkpt>
<trkpt lat="30.9091900" lon="35.3015000">
<ele>-247.690002</ele>
<time>2025-12-29T10:41:50.336Z</time>
</trkpt>
<trkpt lat="30.9089900" lon="35.3017100">
<ele>-238.090012</ele>
<time>2025-12-29T10:41:50.336Z</time>
</trkpt>
<trkpt lat="30.9088400" lon="35.3017100">
<ele>-236.690002</ele>
<time>2025-12-29T10:41:50.336Z</time>
</trkpt>
<trkpt lat="30.9086800" lon="35.3016000">
<ele>-239.290009</ele>
<time>2025-12-29T10:41:50.336Z</time>
</trkpt>
<trkpt lat="30.9085200" lon="35.3014300">
<ele>-242.419998</ele>
<time>2025-12-29T10:41:50.336Z</time>
</trkpt>
<trkpt lat="30.9084300" lon="35.3012300">
<ele>-244.230011</ele>
<time>2025-12-29T10:41:50.336Z</time>
</trkpt>
<trkpt lat="30.9083400" lon="35.3009500">
<ele>-245.840012</ele>
<time>2025-12-29T10:41:50.336Z</time>
</trkpt>
<trkpt lat="30.9082800" lon="35.3007600">
<ele>-245.909988</ele>
<time>2025-12-29T10:41:50.336Z</time>
</trkpt>
<trkpt lat="30.9082300" lon="35.3005400">
<ele>-246.149994</ele>
<time>2025-12-29T10:41:50.336Z</time>
</trkpt>
<trkpt lat="30.9081000" lon="35.2997500">
<ele>-242.699997</ele>
<time>2025-12-29T10:41:50.336Z</time>
</trkpt>
<trkpt lat="30.9080900" lon="35.2990600">
<ele>-241.720001</ele>
<time>2025-12-29T10:41:50.336Z</time>
</trkpt>
<trkpt lat="30.9080200" lon="35.2987000">
<ele>-244.460007</ele>
<time>2025-12-29T10:41:50.336Z</time>
</trkpt>
<trkpt lat="30.9078700" lon="35.2984800">
<ele>-247.000000</ele>
<time>2025-12-29T10:41:50.336Z</time>
</trkpt>
<trkpt lat="30.9078300" lon="35.2982000">
<ele>-247.139999</ele>
<time>2025-12-29T10:41:50.336Z</time>
</trkpt>
<trkpt lat="30.9079000" lon="35.2979100">
<ele>-246.789993</ele>
<time>2025-12-29T10:41:50.336Z</time>
</trkpt>
<trkpt lat="30.9080300" lon="35.2976600">
<ele>-246.959991</ele>
<time>2025-12-29T10:41:50.336Z</time>
</trkpt>
<trkpt lat="30.9081700" lon="35.2975100">
<ele>-246.990005</ele>
<time>2025-12-29T10:41:50.336Z</time>
</trkpt>
<trkpt lat="30.9083600" lon="35.2973300">
<ele>-246.770004</ele>
<time>2025-12-29T10:41:50.336Z</time>
</trkpt>
<trkpt lat="30.9085600" lon="35.2971500">
<ele>-245.790009</ele>
<time>2025-12-29T10:41:50.336Z</time>
</trkpt>
<trkpt lat="30.9087000" lon="35.2970800">
<ele>-245.550003</ele>
<time>2025-12-29T10:41:50.336Z</time>
</trkpt>
<trkpt lat="30.9089600" lon="35.2969500">
<ele>-244.910004</ele>
<time>2025-12-29T10:41:50.336Z</time>
</trkpt>
<trkpt lat="30.9093700" lon="35.2966400">
<ele>-240.139999</ele>
<time>2025-12-29T10:41:50.336Z</time>
</trkpt>
<trkpt lat="30.9094700" lon="35.2965100">
<ele>-241.270004</ele>
<time>2025-12-29T10:41:50.336Z</time>
</trkpt>
<trkpt lat="30.9095400" lon="35.2963700">
<ele>-242.710007</ele>
<time>2025-12-29T10:41:50.336Z</time>
</trkpt>
<trkpt lat="30.9097500" lon="35.2958600">
<ele>-246.520004</ele>
<time>2025-12-29T10:41:50.336Z</time>
</trkpt>
<trkpt lat="30.9098100" lon="35.2956500">
<ele>-246.710007</ele>
<time>2025-12-29T10:41:50.336Z</time>
</trkpt>
<trkpt lat="30.9098400" lon="35.2954400">
<ele>-246.659988</ele>
<time>2025-12-29T10:41:50.336Z</time>
</trkpt>
<trkpt lat="30.9098700" lon="35.2949100">
<ele>-244.210007</ele>
<time>2025-12-29T10:41:50.336Z</time>
</trkpt>
<trkpt lat="30.9098500" lon="35.2947000">
<ele>-243.880005</ele>
<time>2025-12-29T10:41:50.336Z</time>
</trkpt>
<trkpt lat="30.9097900" lon="35.2943100">
<ele>-241.179993</ele>
<time>2025-12-29T10:41:50.336Z</time>
</trkpt>
<trkpt lat="30.9097900" lon="35.2940400">
<ele>-239.800003</ele>
<time>2025-12-29T10:41:50.336Z</time>
</trkpt>
<trkpt lat="30.9097200" lon="35.2937900">
<ele>-240.939987</ele>
<time>2025-12-29T10:41:50.336Z</time>
</trkpt>
<trkpt lat="30.9095500" lon="35.2934700">
<ele>-238.220001</ele>
<time>2025-12-29T10:41:50.336Z</time>
</trkpt>
<trkpt lat="30.9094900" lon="35.2933000">
<ele>-238.529999</ele>
<time>2025-12-29T10:41:50.336Z</time>
</trkpt>
<trkpt lat="30.9093200" lon="35.2925800">
<ele>-235.660004</ele>
<time>2025-12-29T10:41:50.336Z</time>
</trkpt>
<trkpt lat="30.9092900" lon="35.2923800">
<ele>-235.569992</ele>
<time>2025-12-29T10:41:50.336Z</time>
</trkpt>
<trkpt lat="30.9093100" lon="35.2921800">
<ele>-235.880005</ele>
<time>2025-12-29T10:41:50.336Z</time>
</trkpt>
<trkpt lat="30.9094800" lon="35.2915800">
<ele>-235.509995</ele>
<time>2025-12-29T10:41:50.336Z</time>
</trkpt>
<trkpt lat="30.9095500" lon="35.2914500">
<ele>-235.050003</ele>
<time>2025-12-29T10:41:50.336Z</time>
</trkpt>
<trkpt lat="30.9096800" lon="35.2913100">
<ele>-235.000000</ele>
<time>2025-12-29T10:41:50.336Z</time>
</trkpt>
<trkpt lat="30.9099500" lon="35.2911500">
<ele>-234.069992</ele>
<time>2025-12-29T10:41:50.336Z</time>
</trkpt>
<trkpt lat="30.9100900" lon="35.2911000">
<ele>-234.000000</ele>
<time>2025-12-29T10:41:50.336Z</time>
</trkpt>
<trkpt lat="30.9108300" lon="35.2909400">
<ele>-235.589996</ele>
<time>2025-12-29T10:41:50.336Z</time>
</trkpt>
<trkpt lat="30.9110500" lon="35.2908400">
<ele>-236.010010</ele>
<time>2025-12-29T10:41:50.336Z</time>
</trkpt>
<trkpt lat="30.9112400" lon="35.2907000">
<ele>-232.860001</ele>
<time>2025-12-29T10:41:50.336Z</time>
</trkpt>
<trkpt lat="30.9113900" lon="35.2905100">
<ele>-231.000000</ele>
<time>2025-12-29T10:41:50.336Z</time>
</trkpt>
<trkpt lat="30.9114700" lon="35.2903700">
<ele>-231.490005</ele>
<time>2025-12-29T10:41:50.336Z</time>
</trkpt>
<trkpt lat="30.9115100" lon="35.2902100">
<ele>-231.869995</ele>
<time>2025-12-29T10:41:50.336Z</time>
</trkpt>
<trkpt lat="30.9115000" lon="35.2900400">
<ele>-231.799988</ele>
<time>2025-12-29T10:41:50.336Z</time>
</trkpt>
<trkpt lat="30.9112300" lon="35.2894500">
<ele>-230.570007</ele>
<time>2025-12-29T10:41:50.336Z</time>
</trkpt>
<trkpt lat="30.9112100" lon="35.2893100">
<ele>-230.470001</ele>
<time>2025-12-29T10:41:50.336Z</time>
</trkpt>
<trkpt lat="30.9110900" lon="35.2888300">
<ele>-229.210007</ele>
<time>2025-12-29T10:41:50.336Z</time>
</trkpt>
<trkpt lat="30.9110700" lon="35.2886000">
<ele>-230.680008</ele>
<time>2025-12-29T10:41:50.336Z</time>
</trkpt>
<trkpt lat="30.9110700" lon="35.2882400">
<ele>-229.809998</ele>
<time>2025-12-29T10:41:50.336Z</time>
</trkpt>
<trkpt lat="30.9110900" lon="35.2879400">
<ele>-228.660004</ele>
<time>2025-12-29T10:41:50.336Z</time>
</trkpt>
<trkpt lat="30.9111300" lon="35.2877700">
<ele>-227.799988</ele>
<time>2025-12-29T10:41:50.336Z</time>
</trkpt>
<trkpt lat="30.9112700" lon="35.2873800">
<ele>-226.470016</ele>
<time>2025-12-29T10:41:50.336Z</time>
</trkpt>
<trkpt lat="30.9114800" lon="35.2869800">
<ele>-226.129990</ele>
<time>2025-12-29T10:41:50.336Z</time>
</trkpt>
<trkpt lat="30.9115900" lon="35.2866100">
<ele>-225.619995</ele>
<time>2025-12-29T10:41:50.336Z</time>
</trkpt>
<trkpt lat="30.9116300" lon="35.2863900">
<ele>-224.399994</ele>
<time>2025-12-29T10:41:50.336Z</time>
</trkpt>
<trkpt lat="30.9116900" lon="35.2861300">
<ele>-222.729996</ele>
<time>2025-12-29T10:41:50.336Z</time>
</trkpt>
<trkpt lat="30.9117900" lon="35.2858700">
<ele>-221.220001</ele>
<time>2025-12-29T10:41:50.336Z</time>
</trkpt>
<trkpt lat="30.9119200" lon="35.2856000">
<ele>-220.190002</ele>
<time>2025-12-29T10:41:50.336Z</time>
</trkpt>
<trkpt lat="30.9121700" lon="35.2852400">
<ele>-219.589996</ele>
<time>2025-12-29T10:41:50.336Z</time>
</trkpt>
<trkpt lat="30.9129200" lon="35.2839900">
<ele>-218.400009</ele>
<time>2025-12-29T10:41:50.336Z</time>
</trkpt>
<trkpt lat="30.9130400" lon="35.2837600">
<ele>-218.180008</ele>
<time>2025-12-29T10:41:50.336Z</time>
</trkpt>
<trkpt lat="30.9132700" lon="35.2831200">
<ele>-218.729996</ele>
<time>2025-12-29T10:41:50.336Z</time>
</trkpt>
<trkpt lat="30.9133600" lon="35.2828700">
<ele>-219.649994</ele>
<time>2025-12-29T10:41:50.336Z</time>
</trkpt>
<trkpt lat="30.9135100" lon="35.2823700">
<ele>-219.449997</ele>
<time>2025-12-29T10:41:50.336Z</time>
</trkpt>
<trkpt lat="30.9136400" lon="35.2821400">
<ele>-217.900009</ele>
<time>2025-12-29T10:41:50.336Z</time>
</trkpt>
<trkpt lat="30.9137100" lon="35.2820400">
<ele>-217.639999</ele>
<time>2025-12-29T10:41:50.336Z</time>
</trkpt>
<trkpt lat="30.9137900" lon="35.2819600">
<ele>-217.360001</ele>
<time>2025-12-29T10:41:50.336Z</time>
</trkpt>
<trkpt lat="30.9140500" lon="35.2817500">
<ele>-216.880005</ele>
<time>2025-12-29T10:41:50.336Z</time>
</trkpt>
<trkpt lat="30.9142100" lon="35.2816500">
<ele>-217.039993</ele>
<time>2025-12-29T10:41:50.336Z</time>
</trkpt>
<trkpt lat="30.9144500" lon="35.2815100">
<ele>-216.910004</ele>
<time>2025-12-29T10:41:50.336Z</time>
</trkpt>
<trkpt lat="30.9146400" lon="35.2813700">
<ele>-217.869995</ele>
<time>2025-12-29T10:41:50.336Z</time>
</trkpt>
<trkpt lat="30.9148900" lon="35.2811700">
<ele>-215.040009</ele>
<time>2025-12-29T10:41:50.336Z</time>
</trkpt>
<trkpt lat="30.9152500" lon="35.2808300">
<ele>-208.270004</ele>
<time>2025-12-29T10:41:50.336Z</time>
</trkpt>
<trkpt lat="30.9154400" lon="35.2807300">
<ele>-205.349991</ele>
<time>2025-12-29T10:41:50.336Z</time>
</trkpt>
<trkpt lat="30.9157700" lon="35.2805100">
<ele>-202.689987</ele>
<time>2025-12-29T10:41:50.336Z</time>
</trkpt>
<trkpt lat="30.9160400" lon="35.2802900">
<ele>-202.179993</ele>
<time>2025-12-29T10:41:50.336Z</time>
</trkpt>
<trkpt lat="30.9162600" lon="35.2800800">
<ele>-204.750000</ele>
<time>2025-12-29T10:41:50.336Z</time>
</trkpt>
<trkpt lat="30.9165500" lon="35.2798900">
<ele>-203.919998</ele>
<time>2025-12-29T10:41:50.336Z</time>
</trkpt>
<trkpt lat="30.9167200" lon="35.2798400">
<ele>-202.649994</ele>
<time>2025-12-29T10:41:50.336Z</time>
</trkpt>
<trkpt lat="30.9168900" lon="35.2798200">
<ele>-201.630005</ele>
<time>2025-12-29T10:41:50.336Z</time>
</trkpt>
<trkpt lat="30.9170700" lon="35.2798300">
<ele>-200.949997</ele>
<time>2025-12-29T10:41:50.336Z</time>
</trkpt>
<trkpt lat="30.9174400" lon="35.2799100">
<ele>-201.110001</ele>
<time>2025-12-29T10:41:50.336Z</time>
</trkpt>
<trkpt lat="30.9175400" lon="35.2799000">
<ele>-201.069992</ele>
<time>2025-12-29T10:41:50.336Z</time>
</trkpt>
<trkpt lat="30.9177900" lon="35.2798300">
<ele>-199.509995</ele>
<time>2025-12-29T10:41:50.336Z</time>
</trkpt>
<trkpt lat="30.9181500" lon="35.2796800">
<ele>-198.639999</ele>
<time>2025-12-29T10:41:50.336Z</time>
</trkpt>
<trkpt lat="30.9183000" lon="35.2796400">
<ele>-199.470001</ele>
<time>2025-12-29T10:41:50.336Z</time>
</trkpt>
<trkpt lat="30.9184100" lon="35.2796500">
<ele>-199.779999</ele>
<time>2025-12-29T10:41:50.336Z</time>
</trkpt>
<trkpt lat="30.9185600" lon="35.2797000">
<ele>-200.529999</ele>
<time>2025-12-29T10:41:50.336Z</time>
</trkpt>
<trkpt lat="30.9193100" lon="35.2798000">
<ele>-195.169998</ele>
<time>2025-12-29T10:41:50.336Z</time>
</trkpt>
<trkpt lat="30.9193600" lon="35.2797800">
<ele>-194.699997</ele>
<time>2025-12-29T10:41:50.336Z</time>
</trkpt>
<trkpt lat="30.9194300" lon="35.2797200">
<ele>-194.179993</ele>
<time>2025-12-29T10:41:50.336Z</time>
</trkpt>
<trkpt lat="30.9195300" lon="35.2796900">
<ele>-194.889999</ele>
<time>2025-12-29T10:41:50.336Z</time>
</trkpt>
<trkpt lat="30.9201100" lon="35.2796700">
<ele>-195.219986</ele>
<time>2025-12-29T10:41:50.336Z</time>
</trkpt>
<trkpt lat="30.9202200" lon="35.2796100">
<ele>-194.989990</ele>
<time>2025-12-29T10:41:50.336Z</time>
</trkpt>
<trkpt lat="30.9202700" lon="35.2795600">
<ele>-195.369995</ele>
<time>2025-12-29T10:41:50.336Z</time>
</trkpt>
<trkpt lat="30.9203000" lon="35.2795000">
<ele>-196.149994</ele>
<time>2025-12-29T10:41:50.336Z</time>
</trkpt>
<trkpt lat="30.9203100" lon="35.2794200">
<ele>-196.880005</ele>
<time>2025-12-29T10:41:50.336Z</time>
</trkpt>
<trkpt lat="30.9203000" lon="35.2793000">
<ele>-196.919998</ele>
<time>2025-12-29T10:41:50.336Z</time>
</trkpt>
<trkpt lat="30.9203500" lon="35.2791100">
<ele>-196.639999</ele>
<time>2025-12-29T10:41:50.336Z</time>
</trkpt>
<trkpt lat="30.9204000" lon="35.2790400">
<ele>-196.509995</ele>
<time>2025-12-29T10:41:50.336Z</time>
</trkpt>
<trkpt lat="30.9204400" lon="35.2790100">
<ele>-196.509995</ele>
<time>2025-12-29T10:41:50.336Z</time>
</trkpt>
<trkpt lat="30.9205700" lon="35.2789600">
<ele>-196.669998</ele>
<time>2025-12-29T10:41:50.336Z</time>
</trkpt>
<trkpt lat="30.9206500" lon="35.2789300">
<ele>-196.269989</ele>
<time>2025-12-29T10:41:50.336Z</time>
</trkpt>
<trkpt lat="30.9207200" lon="35.2788800">
<ele>-195.759995</ele>
<time>2025-12-29T10:41:50.336Z</time>
</trkpt>
<trkpt lat="30.9207700" lon="35.2788500">
<ele>-195.250000</ele>
<time>2025-12-29T10:41:50.336Z</time>
</trkpt>
<trkpt lat="30.9207800" lon="35.2787600">
<ele>-194.740005</ele>
<time>2025-12-29T10:41:50.336Z</time>
</trkpt>
<trkpt lat="30.9207800" lon="35.2784100">
<ele>-193.279999</ele>
<time>2025-12-29T10:41:50.336Z</time>
</trkpt>
<trkpt lat="30.9208100" lon="35.2782900">
<ele>-192.990005</ele>
<time>2025-12-29T10:41:50.336Z</time>
</trkpt>
<trkpt lat="30.9209600" lon="35.2774800">
<ele>-191.510010</ele>
<time>2025-12-29T10:41:50.336Z</time>
</trkpt>
<trkpt lat="30.9209800" lon="35.2767600">
<ele>-187.620010</ele>
<time>2025-12-29T10:41:50.336Z</time>
</trkpt>
<trkpt lat="30.9210600" lon="35.2764300">
<ele>-185.520004</ele>
<time>2025-12-29T10:41:50.336Z</time>
</trkpt>
<trkpt lat="30.9210900" lon="35.2762100">
<ele>-185.099991</ele>
<time>2025-12-29T10:41:50.336Z</time>
</trkpt>
<trkpt lat="30.9211300" lon="35.2754500">
<ele>-183.949997</ele>
<time>2025-12-29T10:41:50.336Z</time>
</trkpt>
<trkpt lat="30.9211600" lon="35.2752400">
<ele>-183.759995</ele>
<time>2025-12-29T10:41:50.336Z</time>
</trkpt>
<trkpt lat="30.9212000" lon="35.2751500">
<ele>-183.669998</ele>
<time>2025-12-29T10:41:50.336Z</time>
</trkpt>
<trkpt lat="30.9213100" lon="35.2750000">
<ele>-182.849991</ele>
<time>2025-12-29T10:41:50.336Z</time>
</trkpt>
<trkpt lat="30.9216400" lon="35.2746700">
<ele>-179.100006</ele>
<time>2025-12-29T10:41:50.336Z</time>
</trkpt>
<trkpt lat="30.9223400" lon="35.2738600">
<ele>-173.660004</ele>
<time>2025-12-29T10:41:50.336Z</time>
</trkpt>
<trkpt lat="30.9224700" lon="35.2737500">
<ele>-174.000000</ele>
<time>2025-12-29T10:41:50.336Z</time>
</trkpt>
<trkpt lat="30.9227800" lon="35.2735800">
<ele>-170.750000</ele>
<time>2025-12-29T10:41:50.336Z</time>
</trkpt>
<trkpt lat="30.9232200" lon="35.2731700">
<ele>-166.960007</ele>
<time>2025-12-29T10:41:50.336Z</time>
</trkpt>
<trkpt lat="30.9235100" lon="35.2728400">
<ele>-163.799988</ele>
<time>2025-12-29T10:41:50.336Z</time>
</trkpt>
<trkpt lat="30.9237500" lon="35.2724700">
<ele>-161.449997</ele>
<time>2025-12-29T10:41:50.336Z</time>
</trkpt>
<trkpt lat="30.9239700" lon="35.2722400">
<ele>-156.059998</ele>
<time>2025-12-29T10:41:50.336Z</time>
</trkpt>
<trkpt lat="30.9240800" lon="35.2721500">
<ele>-152.319992</ele>
<time>2025-12-29T10:41:50.336Z</time>
</trkpt>
<trkpt lat="30.9242000" lon="35.2720900">
<ele>-149.709991</ele>
<time>2025-12-29T10:41:50.336Z</time>
</trkpt>
<trkpt lat="30.9246100" lon="35.2719800">
<ele>-150.009995</ele>
<time>2025-12-29T10:41:50.336Z</time>
</trkpt>
<trkpt lat="30.9247300" lon="35.2719700">
<ele>-150.570007</ele>
<time>2025-12-29T10:41:50.336Z</time>
</trkpt>
<trkpt lat="30.9249600" lon="35.2719700">
<ele>-151.320007</ele>
<time>2025-12-29T10:41:50.336Z</time>
</trkpt>
<trkpt lat="30.9252800" lon="35.2720100">
<ele>-157.110001</ele>
<time>2025-12-29T10:41:50.336Z</time>
</trkpt>
<trkpt lat="30.9255200" lon="35.2720100">
<ele>-162.699997</ele>
<time>2025-12-29T10:41:50.336Z</time>
</trkpt>
<trkpt lat="30.9262400" lon="35.2719200">
<ele>-168.919998</ele>
<time>2025-12-29T10:41:50.336Z</time>
</trkpt>
<trkpt lat="30.9267400" lon="35.2718900">
<ele>-173.720001</ele>
<time>2025-12-29T10:41:50.336Z</time>
</trkpt>
<trkpt lat="30.9271300" lon="35.2718200">
<ele>-180.369995</ele>
<time>2025-12-29T10:41:50.336Z</time>
</trkpt>
<trkpt lat="30.9273900" lon="35.2718000">
<ele>-180.400009</ele>
<time>2025-12-29T10:41:50.336Z</time>
</trkpt>
<trkpt lat="30.9275100" lon="35.2717800">
<ele>-179.959991</ele>
<time>2025-12-29T10:41:50.336Z</time>
</trkpt>
<trkpt lat="30.9280000" lon="35.2718000">
<ele>-176.220001</ele>
<time>2025-12-29T10:41:50.336Z</time>
</trkpt>
<trkpt lat="30.9282500" lon="35.2717500">
<ele>-172.690002</ele>
<time>2025-12-29T10:41:50.336Z</time>
</trkpt>
<trkpt lat="30.9284700" lon="35.2718400">
<ele>-172.290009</ele>
<time>2025-12-29T10:41:50.336Z</time>
</trkpt>
<trkpt lat="30.9285300" lon="35.2718300">
<ele>-173.119995</ele>
<time>2025-12-29T10:41:50.336Z</time>
</trkpt>
<trkpt lat="30.9285600" lon="35.2718100">
<ele>-173.779999</ele>
<time>2025-12-29T10:41:50.336Z</time>
</trkpt>
<trkpt lat="30.9287200" lon="35.2716700">
<ele>-184.389984</ele>
<time>2025-12-29T10:41:50.336Z</time>
</trkpt>
<trkpt lat="30.9287800" lon="35.2715900">
<ele>-190.039993</ele>
<time>2025-12-29T10:41:50.336Z</time>
</trkpt>
<trkpt lat="30.9287900" lon="35.2712500">
<ele>-195.339996</ele>
<time>2025-12-29T10:41:50.336Z</time>
</trkpt>
<trkpt lat="30.9287100" lon="35.2709400">
<ele>-193.710007</ele>
<time>2025-12-29T10:41:50.336Z</time>
</trkpt>
<trkpt lat="30.9287600" lon="35.2706600">
<ele>-198.989990</ele>
<time>2025-12-29T10:41:50.336Z</time>
</trkpt>
<trkpt lat="30.9287400" lon="35.2704100">
<ele>-198.699997</ele>
<time>2025-12-29T10:41:50.336Z</time>
</trkpt>
<trkpt lat="30.9287400" lon="35.2702200">
<ele>-197.360016</ele>
<time>2025-12-29T10:41:50.336Z</time>
</trkpt>
<trkpt lat="30.9287600" lon="35.2701300">
<ele>-198.210007</ele>
<time>2025-12-29T10:41:50.336Z</time>
</trkpt>
<trkpt lat="30.9288100" lon="35.2700200">
<ele>-199.990005</ele>
<time>2025-12-29T10:41:50.336Z</time>
</trkpt>
<trkpt lat="30.9288600" lon="35.2698800">
<ele>-201.860001</ele>
<time>2025-12-29T10:41:50.336Z</time>
</trkpt>
<trkpt lat="30.9289200" lon="35.2694900">
<ele>-204.619995</ele>
<time>2025-12-29T10:41:50.336Z</time>
</trkpt>
<trkpt lat="30.9289500" lon="35.2691800">
<ele>-205.850006</ele>
<time>2025-12-29T10:41:50.336Z</time>
</trkpt>
<trkpt lat="30.9289300" lon="35.2689200">
<ele>-204.440002</ele>
<time>2025-12-29T10:41:50.336Z</time>
</trkpt>
<trkpt lat="30.9288700" lon="35.2686500">
<ele>-200.590012</ele>
<time>2025-12-29T10:41:50.336Z</time>
</trkpt>
<trkpt lat="30.9286300" lon="35.2682200">
<ele>-199.410004</ele>
<time>2025-12-29T10:41:50.336Z</time>
</trkpt>
<trkpt lat="30.9285400" lon="35.2681000">
<ele>-198.559998</ele>
<time>2025-12-29T10:41:50.336Z</time>
</trkpt>
<trkpt lat="30.9283800" lon="35.2679300">
<ele>-196.589996</ele>
<time>2025-12-29T10:41:50.336Z</time>
</trkpt>
<trkpt lat="30.9282500" lon="35.2676900">
<ele>-195.069992</ele>
<time>2025-12-29T10:41:50.336Z</time>
</trkpt>
<trkpt lat="30.9281000" lon="35.2675000">
<ele>-192.639999</ele>
<time>2025-12-29T10:41:50.336Z</time>
</trkpt>
<trkpt lat="30.9280200" lon="35.2673800">
<ele>-193.270004</ele>
<time>2025-12-29T10:41:50.336Z</time>
</trkpt>
<trkpt lat="30.9278200" lon="35.2669700">
<ele>-197.860001</ele>
<time>2025-12-29T10:41:50.336Z</time>
</trkpt>
<trkpt lat="30.9277800" lon="35.2668100">
<ele>-199.470001</ele>
<time>2025-12-29T10:41:50.336Z</time>
</trkpt>
<trkpt lat="30.9275500" lon="35.2663700">
<ele>-199.779999</ele>
<time>2025-12-29T10:41:50.336Z</time>
</trkpt>
<trkpt lat="30.9275200" lon="35.2662400">
<ele>-199.789993</ele>
<time>2025-12-29T10:41:50.336Z</time>
</trkpt>
<trkpt lat="30.9274900" lon="35.2660600">
<ele>-199.960007</ele>
<time>2025-12-29T10:41:50.336Z</time>
</trkpt>
<trkpt lat="30.9274400" lon="35.2658900">
<ele>-199.329987</ele>
<time>2025-12-29T10:41:50.336Z</time>
</trkpt>
<trkpt lat="30.9274600" lon="35.2657300">
<ele>-200.050003</ele>
<time>2025-12-29T10:41:50.336Z</time>
</trkpt>
<trkpt lat="30.9274400" lon="35.2656000">
<ele>-199.670013</ele>
<time>2025-12-29T10:41:50.336Z</time>
</trkpt>
<trkpt lat="30.9274100" lon="35.2655100">
<ele>-199.159988</ele>
<time>2025-12-29T10:41:50.336Z</time>
</trkpt>
<trkpt lat="30.9273300" lon="35.2653400">
<ele>-198.280014</ele>
<time>2025-12-29T10:41:50.336Z</time>
</trkpt>
<trkpt lat="30.9273000" lon="35.2651500">
<ele>-198.910004</ele>
<time>2025-12-29T10:41:50.336Z</time>
</trkpt>
<trkpt lat="30.9272200" lon="35.2650100">
<ele>-198.819992</ele>
<time>2025-12-29T10:41:50.336Z</time>
</trkpt>
<trkpt lat="30.9272900" lon="35.2647700">
<ele>-200.979996</ele>
<time>2025-12-29T10:41:50.336Z</time>
</trkpt>
<trkpt lat="30.9272900" lon="35.2646700">
<ele>-201.290009</ele>
<time>2025-12-29T10:41:50.336Z</time>
</trkpt>
<trkpt lat="30.9272700" lon="35.2645900">
<ele>-201.250000</ele>
<time>2025-12-29T10:41:50.336Z</time>
</trkpt>
<trkpt lat="30.9271900" lon="35.2643500">
<ele>-199.090012</ele>
<time>2025-12-29T10:41:50.336Z</time>
</trkpt>
<trkpt lat="30.9270400" lon="35.2640300">
<ele>-192.909988</ele>
<time>2025-12-29T10:41:50.336Z</time>
</trkpt>
<trkpt lat="30.9269300" lon="35.2638500">
<ele>-190.410004</ele>
<time>2025-12-29T10:41:50.336Z</time>
</trkpt>
<trkpt lat="30.9267100" lon="35.2635300">
<ele>-185.309998</ele>
<time>2025-12-29T10:41:50.336Z</time>
</trkpt>
<trkpt lat="30.9265500" lon="35.2631800">
<ele>-186.639999</ele>
<time>2025-12-29T10:41:50.336Z</time>
</trkpt>
<trkpt lat="30.9264200" lon="35.2629500">
<ele>-186.180008</ele>
<time>2025-12-29T10:41:50.336Z</time>
</trkpt>
<trkpt lat="30.9263900" lon="35.2628100">
<ele>-187.550003</ele>
<time>2025-12-29T10:41:50.336Z</time>
</trkpt>
<trkpt lat="30.9264500" lon="35.2627400">
<ele>-189.259995</ele>
<time>2025-12-29T10:41:50.336Z</time>
</trkpt>
<trkpt lat="30.9266000" lon="35.2626600">
<ele>-191.989990</ele>
<time>2025-12-29T10:41:50.336Z</time>
</trkpt>
<trkpt lat="30.9266700" lon="35.2626000">
<ele>-193.259995</ele>
<time>2025-12-29T10:41:50.336Z</time>
</trkpt>
<trkpt lat="30.9267200" lon="35.2624800">
<ele>-193.480011</ele>
<time>2025-12-29T10:41:50.336Z</time>
</trkpt>
<trkpt lat="30.9267600" lon="35.2623000">
<ele>-193.470001</ele>
<time>2025-12-29T10:41:50.336Z</time>
</trkpt>
<trkpt lat="30.9267600" lon="35.2623000">
<ele>-193.470001</ele>
<time>2025-12-29T10:41:50.336Z</time>
</trkpt>
<trkpt lat="30.9267300" lon="35.2624100">
<ele>-193.570007</ele>
<time>2025-12-29T10:41:50.336Z</time>
</trkpt>
<trkpt lat="30.9267400" lon="35.2624100">
<ele>-193.449997</ele>
<time>2025-12-29T10:41:50.336Z</time>
</trkpt>
<trkpt lat="30.9267400" lon="35.2624100">
<ele>-193.449997</ele>
<time>2025-12-29T10:41:50.336Z</time>
</trkpt>
<trkpt lat="30.9267200" lon="35.2624800">
<ele>-193.480011</ele>
<time>2025-12-29T10:41:50.336Z</time>
</trkpt>
<trkpt lat="30.9266700" lon="35.2626000">
<ele>-193.259995</ele>
<time>2025-12-29T10:41:50.336Z</time>
</trkpt>
<trkpt lat="30.9263900" lon="35.2628100">
<ele>-187.550003</ele>
<time>2025-12-29T10:41:50.336Z</time>
</trkpt>
<trkpt lat="30.9266800" lon="35.2634000">
<ele>-186.410004</ele>
<time>2025-12-29T10:41:50.336Z</time>
</trkpt>
<trkpt lat="30.9268800" lon="35.2638000">
<ele>-188.739990</ele>
<time>2025-12-29T10:41:50.336Z</time>
</trkpt>
<trkpt lat="30.9268800" lon="35.2638000">
<ele>-188.739990</ele>
<time>2025-12-29T10:41:50.336Z</time>
</trkpt>
<trkpt lat="30.9269800" lon="35.2640000">
<ele>-191.639999</ele>
<time>2025-12-29T10:41:50.336Z</time>
</trkpt>
<trkpt lat="30.9272700" lon="35.2645900">
<ele>-201.250000</ele>
<time>2025-12-29T10:41:50.336Z</time>
</trkpt>
<trkpt lat="30.9272900" lon="35.2647700">
<ele>-200.979996</ele>
<time>2025-12-29T10:41:50.336Z</time>
</trkpt>
<trkpt lat="30.9272200" lon="35.2650100">
<ele>-198.819992</ele>
<time>2025-12-29T10:41:50.336Z</time>
</trkpt>
<trkpt lat="30.9274400" lon="35.2656000">
<ele>-199.670013</ele>
<time>2025-12-29T10:41:50.336Z</time>
</trkpt>
<trkpt lat="30.9274400" lon="35.2659000">
<ele>-199.300003</ele>
<time>2025-12-29T10:41:50.336Z</time>
</trkpt>
<trkpt lat="30.9275500" lon="35.2663700">
<ele>-199.779999</ele>
<time>2025-12-29T10:41:50.336Z</time>
</trkpt>
<trkpt lat="30.9277900" lon="35.2668800">
<ele>-198.790009</ele>
<time>2025-12-29T10:41:50.336Z</time>
</trkpt>
<trkpt lat="30.9280200" lon="35.2673800">
<ele>-193.270004</ele>
<time>2025-12-29T10:41:50.336Z</time>
</trkpt>
<trkpt lat="30.9283800" lon="35.2679400">
<ele>-196.529999</ele>
<time>2025-12-29T10:41:50.336Z</time>
</trkpt>
<trkpt lat="30.9286400" lon="35.2682200">
<ele>-199.410004</ele>
<time>2025-12-29T10:41:50.336Z</time>
</trkpt>
<trkpt lat="30.9288700" lon="35.2686500">
<ele>-200.590012</ele>
<time>2025-12-29T10:41:50.336Z</time>
</trkpt>
<trkpt lat="30.9289500" lon="35.2691800">
<ele>-205.850006</ele>
<time>2025-12-29T10:41:50.336Z</time>
</trkpt>
<trkpt lat="30.9288600" lon="35.2698800">
<ele>-201.860001</ele>
<time>2025-12-29T10:41:50.336Z</time>
</trkpt>
<trkpt lat="30.9287400" lon="35.2702200">
<ele>-197.360016</ele>
<time>2025-12-29T10:41:50.336Z</time>
</trkpt>
<trkpt lat="30.9287700" lon="35.2706600">
<ele>-199.360001</ele>
<time>2025-12-29T10:41:50.336Z</time>
</trkpt>
<trkpt lat="30.9287100" lon="35.2709400">
<ele>-193.710007</ele>
<time>2025-12-29T10:41:50.336Z</time>
</trkpt>
<trkpt lat="30.9287900" lon="35.2712500">
<ele>-195.339996</ele>
<time>2025-12-29T10:41:50.336Z</time>
</trkpt>
<trkpt lat="30.9287800" lon="35.2715900">
<ele>-190.039993</ele>
<time>2025-12-29T10:41:50.336Z</time>
</trkpt>
<trkpt lat="30.9284700" lon="35.2718400">
<ele>-172.290009</ele>
<time>2025-12-29T10:41:50.336Z</time>
</trkpt>
<trkpt lat="30.9282500" lon="35.2717500">
<ele>-172.690002</ele>
<time>2025-12-29T10:41:50.336Z</time>
</trkpt>
<trkpt lat="30.9278000" lon="35.2717900">
<ele>-178.719986</ele>
<time>2025-12-29T10:41:50.336Z</time>
</trkpt>
<trkpt lat="30.9273400" lon="35.2718400">
<ele>-180.579987</ele>
<time>2025-12-29T10:41:50.336Z</time>
</trkpt>
<trkpt lat="30.9268900" lon="35.2718800">
<ele>-177.969986</ele>
<time>2025-12-29T10:41:50.336Z</time>
</trkpt>
<trkpt lat="30.9264300" lon="35.2719200">
<ele>-169.270004</ele>
<time>2025-12-29T10:41:50.336Z</time>
</trkpt>
<trkpt lat="30.9259700" lon="35.2719700">
<ele>-167.520004</ele>
<time>2025-12-29T10:41:50.336Z</time>
</trkpt>
<trkpt lat="30.9255200" lon="35.2720100">
<ele>-162.699997</ele>
<time>2025-12-29T10:41:50.336Z</time>
</trkpt>
<trkpt lat="30.9247300" lon="35.2719700">
<ele>-150.570007</ele>
<time>2025-12-29T10:41:50.336Z</time>
</trkpt>
<trkpt lat="30.9240800" lon="35.2721500">
<ele>-152.319992</ele>
<time>2025-12-29T10:41:50.336Z</time>
</trkpt>
<trkpt lat="30.9237500" lon="35.2724700">
<ele>-161.449997</ele>
<time>2025-12-29T10:41:50.336Z</time>
</trkpt>
<trkpt lat="30.9232200" lon="35.2731700">
<ele>-166.960007</ele>
<time>2025-12-29T10:41:50.336Z</time>
</trkpt>
<trkpt lat="30.9227800" lon="35.2735800">
<ele>-170.750000</ele>
<time>2025-12-29T10:41:50.336Z</time>
</trkpt>
<trkpt lat="30.9223400" lon="35.2738600">
<ele>-173.660004</ele>
<time>2025-12-29T10:41:50.336Z</time>
</trkpt>
<trkpt lat="30.9219600" lon="35.2742900">
<ele>-176.879990</ele>
<time>2025-12-29T10:41:50.336Z</time>
</trkpt>
<trkpt lat="30.9215800" lon="35.2747200">
<ele>-179.930008</ele>
<time>2025-12-29T10:41:50.336Z</time>
</trkpt>
<trkpt lat="30.9212000" lon="35.2751500">
<ele>-183.669998</ele>
<time>2025-12-29T10:41:50.336Z</time>
</trkpt>
<trkpt lat="30.9211600" lon="35.2752400">
<ele>-183.759995</ele>
<time>2025-12-29T10:41:50.336Z</time>
</trkpt>
<trkpt lat="30.9210900" lon="35.2762100">
<ele>-185.099991</ele>
<time>2025-12-29T10:41:50.336Z</time>
</trkpt>
<trkpt lat="30.9209800" lon="35.2767600">
<ele>-187.620010</ele>
<time>2025-12-29T10:41:50.336Z</time>
</trkpt>
<trkpt lat="30.9209600" lon="35.2774800">
<ele>-191.510010</ele>
<time>2025-12-29T10:41:50.336Z</time>
</trkpt>
<trkpt lat="30.9207800" lon="35.2784100">
<ele>-193.279999</ele>
<time>2025-12-29T10:41:50.336Z</time>
</trkpt>
<trkpt lat="30.9207700" lon="35.2788500">
<ele>-195.250000</ele>
<time>2025-12-29T10:41:50.336Z</time>
</trkpt>
<trkpt lat="30.9204400" lon="35.2790100">
<ele>-196.509995</ele>
<time>2025-12-29T10:41:50.336Z</time>
</trkpt>
<trkpt lat="30.9204400" lon="35.2790100">
<ele>-196.509995</ele>
<time>2025-12-29T10:41:50.336Z</time>
</trkpt>
<trkpt lat="30.9207300" lon="35.2799600">
<ele>-191.649994</ele>
<time>2025-12-29T10:41:50.336Z</time>
</trkpt>
<trkpt lat="30.9210700" lon="35.2806200">
<ele>-192.800003</ele>
<time>2025-12-29T10:41:50.336Z</time>
</trkpt>
<trkpt lat="30.9212900" lon="35.2810900">
<ele>-192.330002</ele>
<time>2025-12-29T10:41:50.336Z</time>
</trkpt>
<trkpt lat="30.9213500" lon="35.2812600">
<ele>-191.680008</ele>
<time>2025-12-29T10:41:50.336Z</time>
</trkpt>
<trkpt lat="30.9215300" lon="35.2816400">
<ele>-189.480011</ele>
<time>2025-12-29T10:41:50.336Z</time>
</trkpt>
<trkpt lat="30.9217300" lon="35.2822100">
<ele>-187.529999</ele>
<time>2025-12-29T10:41:50.336Z</time>
</trkpt>
<trkpt lat="30.9220000" lon="35.2828500">
<ele>-187.850006</ele>
<time>2025-12-29T10:41:50.336Z</time>
</trkpt>
<trkpt lat="30.9221300" lon="35.2833000">
<ele>-188.000000</ele>
<time>2025-12-29T10:41:50.336Z</time>
</trkpt>
<trkpt lat="30.9222200" lon="35.2835300">
<ele>-188.710007</ele>
<time>2025-12-29T10:41:50.336Z</time>
</trkpt>
<trkpt lat="30.9223500" lon="35.2838100">
<ele>-190.429993</ele>
<time>2025-12-29T10:41:50.336Z</time>
</trkpt>
<trkpt lat="30.9227400" lon="35.2843200">
<ele>-193.990005</ele>
<time>2025-12-29T10:41:50.336Z</time>
</trkpt>
<trkpt lat="30.9228500" lon="35.2845100">
<ele>-195.069992</ele>
<time>2025-12-29T10:41:50.336Z</time>
</trkpt>
<trkpt lat="30.9229100" lon="35.2846300">
<ele>-196.020004</ele>
<time>2025-12-29T10:41:50.336Z</time>
</trkpt>
<trkpt lat="30.9229700" lon="35.2848800">
<ele>-198.309998</ele>
<time>2025-12-29T10:41:50.336Z</time>
</trkpt>
<trkpt lat="30.9229600" lon="35.2852600">
<ele>-201.539993</ele>
<time>2025-12-29T10:41:50.336Z</time>
</trkpt>
<trkpt lat="30.9228900" lon="35.2855600">
<ele>-203.800003</ele>
<time>2025-12-29T10:41:50.336Z</time>
</trkpt>
<trkpt lat="30.9228600" lon="35.2857300">
<ele>-204.550003</ele>
<time>2025-12-29T10:41:50.336Z</time>
</trkpt>
<trkpt lat="30.9228800" lon="35.2858200">
<ele>-204.500000</ele>
<time>2025-12-29T10:41:50.336Z</time>
</trkpt>
<trkpt lat="30.9228600" lon="35.2859700">
<ele>-205.109985</ele>
<time>2025-12-29T10:41:50.336Z</time>
</trkpt>
<trkpt lat="30.9226100" lon="35.2864600">
<ele>-205.800003</ele>
<time>2025-12-29T10:41:50.336Z</time>
</trkpt>
<trkpt lat="30.9224500" lon="35.2867200">
<ele>-204.990005</ele>
<time>2025-12-29T10:41:50.336Z</time>
</trkpt>
<trkpt lat="30.9224000" lon="35.2868300">
<ele>-204.769989</ele>
<time>2025-12-29T10:41:50.336Z</time>
</trkpt>
<trkpt lat="30.9224000" lon="35.2869100">
<ele>-204.479996</ele>
<time>2025-12-29T10:41:50.336Z</time>
</trkpt>
<trkpt lat="30.9224500" lon="35.2876100">
<ele>-206.830002</ele>
<time>2025-12-29T10:41:50.336Z</time>
</trkpt>
<trkpt lat="30.9224400" lon="35.2877400">
<ele>-207.480011</ele>
<time>2025-12-29T10:41:50.336Z</time>
</trkpt>
<trkpt lat="30.9224100" lon="35.2878100">
<ele>-208.089996</ele>
<time>2025-12-29T10:41:50.336Z</time>
</trkpt>
<trkpt lat="30.9223100" lon="35.2880000">
<ele>-209.850006</ele>
<time>2025-12-29T10:41:50.336Z</time>
</trkpt>
<trkpt lat="30.9222900" lon="35.2880900">
<ele>-210.360001</ele>
<time>2025-12-29T10:41:50.336Z</time>
</trkpt>
<trkpt lat="30.9222900" lon="35.2882400">
<ele>-210.770004</ele>
<time>2025-12-29T10:41:50.336Z</time>
</trkpt>
<trkpt lat="30.9223200" lon="35.2884600">
<ele>-210.589996</ele>
<time>2025-12-29T10:41:50.336Z</time>
</trkpt>
<trkpt lat="30.9223200" lon="35.2887100">
<ele>-210.589996</ele>
<time>2025-12-29T10:41:50.336Z</time>
</trkpt>
<trkpt lat="30.9222900" lon="35.2888500">
<ele>-211.019989</ele>
<time>2025-12-29T10:41:50.336Z</time>
</trkpt>
<trkpt lat="30.9221600" lon="35.2892800">
<ele>-210.909988</ele>
<time>2025-12-29T10:41:50.336Z</time>
</trkpt>
<trkpt lat="30.9220700" lon="35.2897900">
<ele>-209.949997</ele>
<time>2025-12-29T10:41:50.336Z</time>
</trkpt>
<trkpt lat="30.9220000" lon="35.2899400">
<ele>-210.419998</ele>
<time>2025-12-29T10:41:50.336Z</time>
</trkpt>
<trkpt lat="30.9217800" lon="35.2902600">
<ele>-212.740005</ele>
<time>2025-12-29T10:41:50.336Z</time>
</trkpt>
<trkpt lat="30.9216600" lon="35.2904900">
<ele>-213.960007</ele>
<time>2025-12-29T10:41:50.336Z</time>
</trkpt>
<trkpt lat="30.9216000" lon="35.2906600">
<ele>-213.849991</ele>
<time>2025-12-29T10:41:50.336Z</time>
</trkpt>
<trkpt lat="30.9213400" lon="35.2915800">
<ele>-210.710007</ele>
<time>2025-12-29T10:41:50.336Z</time>
</trkpt>
<trkpt lat="30.9213200" lon="35.2917400">
<ele>-209.490005</ele>
<time>2025-12-29T10:41:50.336Z</time>
</trkpt>
<trkpt lat="30.9213200" lon="35.2918800">
<ele>-208.980011</ele>
<time>2025-12-29T10:41:50.336Z</time>
</trkpt>
<trkpt lat="30.9213600" lon="35.2921300">
<ele>-208.830002</ele>
<time>2025-12-29T10:41:50.336Z</time>
</trkpt>
<trkpt lat="30.9214000" lon="35.2922600">
<ele>-209.040009</ele>
<time>2025-12-29T10:41:50.336Z</time>
</trkpt>
<trkpt lat="30.9215200" lon="35.2924400">
<ele>-209.470001</ele>
<time>2025-12-29T10:41:50.336Z</time>
</trkpt>
<trkpt lat="30.9216800" lon="35.2926400">
<ele>-210.699997</ele>
<time>2025-12-29T10:41:50.336Z</time>
</trkpt>
<trkpt lat="30.9217800" lon="35.2928000">
<ele>-213.169998</ele>
<time>2025-12-29T10:41:50.336Z</time>
</trkpt>
<trkpt lat="30.9218500" lon="35.2929600">
<ele>-215.180008</ele>
<time>2025-12-29T10:41:50.336Z</time>
</trkpt>
<trkpt lat="30.9219100" lon="35.2930500">
<ele>-216.479996</ele>
<time>2025-12-29T10:41:50.336Z</time>
</trkpt>
<trkpt lat="30.9220400" lon="35.2931400">
<ele>-216.210007</ele>
<time>2025-12-29T10:41:50.336Z</time>
</trkpt>
<trkpt lat="30.9220900" lon="35.2932300">
<ele>-215.619995</ele>
<time>2025-12-29T10:41:50.336Z</time>
</trkpt>
<trkpt lat="30.9221000" lon="35.2932900">
<ele>-215.409988</ele>
<time>2025-12-29T10:41:50.336Z</time>
</trkpt>
<trkpt lat="30.9220800" lon="35.2934300">
<ele>-214.839996</ele>
<time>2025-12-29T10:41:50.336Z</time>
</trkpt>
<trkpt lat="30.9220200" lon="35.2935300">
<ele>-214.770004</ele>
<time>2025-12-29T10:41:50.336Z</time>
</trkpt>
<trkpt lat="30.9217700" lon="35.2936900">
<ele>-216.490005</ele>
<time>2025-12-29T10:41:50.336Z</time>
</trkpt>
<trkpt lat="30.9215200" lon="35.2939000">
<ele>-217.549988</ele>
<time>2025-12-29T10:41:50.336Z</time>
</trkpt>
<trkpt lat="30.9213500" lon="35.2940200">
<ele>-218.529999</ele>
<time>2025-12-29T10:41:50.336Z</time>
</trkpt>
<trkpt lat="30.9211800" lon="35.2941900">
<ele>-220.419998</ele>
<time>2025-12-29T10:41:50.336Z</time>
</trkpt>
<trkpt lat="30.9209100" lon="35.2943400">
<ele>-219.559998</ele>
<time>2025-12-29T10:41:50.336Z</time>
</trkpt>
<trkpt lat="30.9207500" lon="35.2944800">
<ele>-219.309998</ele>
<time>2025-12-29T10:41:50.336Z</time>
</trkpt>
<trkpt lat="30.9205400" lon="35.2947300">
<ele>-217.970001</ele>
<time>2025-12-29T10:41:50.336Z</time>
</trkpt>
<trkpt lat="30.9204700" lon="35.2948500">
<ele>-218.010010</ele>
<time>2025-12-29T10:41:50.336Z</time>
</trkpt>
<trkpt lat="30.9204600" lon="35.2949300">
<ele>-218.149994</ele>
<time>2025-12-29T10:41:50.336Z</time>
</trkpt>
<trkpt lat="30.9204800" lon="35.2950000">
<ele>-218.460007</ele>
<time>2025-12-29T10:41:50.336Z</time>
</trkpt>
<trkpt lat="30.9205400" lon="35.2950500">
<ele>-219.409988</ele>
<time>2025-12-29T10:41:50.336Z</time>
</trkpt>
<trkpt lat="30.9209300" lon="35.2952400">
<ele>-219.940002</ele>
<time>2025-12-29T10:41:50.336Z</time>
</trkpt>
<trkpt lat="30.9210200" lon="35.2953300">
<ele>-220.029999</ele>
<time>2025-12-29T10:41:50.336Z</time>
</trkpt>
<trkpt lat="30.9210500" lon="35.2954000">
<ele>-220.320007</ele>
<time>2025-12-29T10:41:50.336Z</time>
</trkpt>
<trkpt lat="30.9210800" lon="35.2956600">
<ele>-220.969986</ele>
<time>2025-12-29T10:41:50.336Z</time>
</trkpt>
<trkpt lat="30.9210700" lon="35.2957700">
<ele>-220.869995</ele>
<time>2025-12-29T10:41:50.336Z</time>
</trkpt>
<trkpt lat="30.9210500" lon="35.2959100">
<ele>-220.819992</ele>
<time>2025-12-29T10:41:50.336Z</time>
</trkpt>
<trkpt lat="30.9209500" lon="35.2962400">
<ele>-221.899994</ele>
<time>2025-12-29T10:41:50.336Z</time>
</trkpt>
<trkpt lat="30.9208800" lon="35.2966000">
<ele>-221.899994</ele>
<time>2025-12-29T10:41:50.336Z</time>
</trkpt>
<trkpt lat="30.9208800" lon="35.2967000">
<ele>-221.419998</ele>
<time>2025-12-29T10:41:50.336Z</time>
</trkpt>
<trkpt lat="30.9209900" lon="35.2971100">
<ele>-218.979996</ele>
<time>2025-12-29T10:41:50.336Z</time>
</trkpt>
<trkpt lat="30.9210200" lon="35.2974200">
<ele>-216.819992</ele>
<time>2025-12-29T10:41:50.336Z</time>
</trkpt>
<trkpt lat="30.9211700" lon="35.2978100">
<ele>-217.750000</ele>
<time>2025-12-29T10:41:50.336Z</time>
</trkpt>
<trkpt lat="30.9212800" lon="35.2979900">
<ele>-220.040009</ele>
<time>2025-12-29T10:41:50.336Z</time>
</trkpt>
<trkpt lat="30.9213300" lon="35.2980400">
<ele>-220.660004</ele>
<time>2025-12-29T10:41:50.336Z</time>
</trkpt>
<trkpt lat="30.9215100" lon="35.2981300">
<ele>-220.399994</ele>
<time>2025-12-29T10:41:50.336Z</time>
</trkpt>
<trkpt lat="30.9216200" lon="35.2982200">
<ele>-219.929993</ele>
<time>2025-12-29T10:41:50.336Z</time>
</trkpt>
<trkpt lat="30.9216800" lon="35.2983800">
<ele>-220.020004</ele>
<time>2025-12-29T10:41:50.336Z</time>
</trkpt>
<trkpt lat="30.9217400" lon="35.2986100">
<ele>-219.940002</ele>
<time>2025-12-29T10:41:50.336Z</time>
</trkpt>
<trkpt lat="30.9218500" lon="35.2989700">
<ele>-219.940002</ele>
<time>2025-12-29T10:41:50.336Z</time>
</trkpt>
<trkpt lat="30.9218500" lon="35.2992300">
<ele>-222.039993</ele>
<time>2025-12-29T10:41:50.336Z</time>
</trkpt>
<trkpt lat="30.9218900" lon="35.2994800">
<ele>-224.759995</ele>
<time>2025-12-29T10:41:50.336Z</time>
</trkpt>
<trkpt lat="30.9219100" lon="35.2997900">
<ele>-229.210007</ele>
<time>2025-12-29T10:41:50.336Z</time>
</trkpt>
<trkpt lat="30.9219100" lon="35.2998800">
<ele>-229.820007</ele>
<time>2025-12-29T10:41:50.336Z</time>
</trkpt>
<trkpt lat="30.9217700" lon="35.3004600">
<ele>-227.179993</ele>
<time>2025-12-29T10:41:50.336Z</time>
</trkpt>
<trkpt lat="30.9218000" lon="35.3006100">
<ele>-226.830002</ele>
<time>2025-12-29T10:41:50.336Z</time>
</trkpt>
<trkpt lat="30.9219100" lon="35.3007800">
<ele>-227.799988</ele>
<time>2025-12-29T10:41:50.336Z</time>
</trkpt>
<trkpt lat="30.9219600" lon="35.3008300">
<ele>-228.119995</ele>
<time>2025-12-29T10:41:50.336Z</time>
</trkpt>
<trkpt lat="30.9220400" lon="35.3008300">
<ele>-228.699997</ele>
<time>2025-12-29T10:41:50.336Z</time>
</trkpt>
<trkpt lat="30.9220900" lon="35.3007800">
<ele>-229.240005</ele>
<time>2025-12-29T10:41:50.336Z</time>
</trkpt>
<trkpt lat="30.9221600" lon="35.3006400">
<ele>-230.250000</ele>
<time>2025-12-29T10:41:50.336Z</time>
</trkpt>
<trkpt lat="30.9222200" lon="35.3005900">
<ele>-230.859985</ele>
<time>2025-12-29T10:41:50.336Z</time>
</trkpt>
<trkpt lat="30.9223400" lon="35.3005500">
<ele>-230.160004</ele>
<time>2025-12-29T10:41:50.336Z</time>
</trkpt>
<trkpt lat="30.9227000" lon="35.3005100">
<ele>-227.560013</ele>
<time>2025-12-29T10:41:50.336Z</time>
</trkpt>
<trkpt lat="30.9228300" lon="35.3004800">
<ele>-226.490005</ele>
<time>2025-12-29T10:41:50.336Z</time>
</trkpt>
<trkpt lat="30.9229000" lon="35.3005100">
<ele>-225.750000</ele>
<time>2025-12-29T10:41:50.336Z</time>
</trkpt>
<trkpt lat="30.9229200" lon="35.3005600">
<ele>-225.470001</ele>
<time>2025-12-29T10:41:50.336Z</time>
</trkpt>
<trkpt lat="30.9229200" lon="35.3007900">
<ele>-225.880005</ele>
<time>2025-12-29T10:41:50.336Z</time>
</trkpt>
<trkpt lat="30.9229800" lon="35.3009500">
<ele>-224.860001</ele>
<time>2025-12-29T10:41:50.336Z</time>
</trkpt>
<trkpt lat="30.9230000" lon="35.3010900">
<ele>-224.430008</ele>
<time>2025-12-29T10:41:50.336Z</time>
</trkpt>
<trkpt lat="30.9228600" lon="35.3015200">
<ele>-227.669998</ele>
<time>2025-12-29T10:41:50.336Z</time>
</trkpt>
<trkpt lat="30.9228600" lon="35.3016400">
<ele>-229.089996</ele>
<time>2025-12-29T10:41:50.336Z</time>
</trkpt>
<trkpt lat="30.9228800" lon="35.3017100">
<ele>-229.359985</ele>
<time>2025-12-29T10:41:50.336Z</time>
</trkpt>
<trkpt lat="30.9229300" lon="35.3017700">
<ele>-229.069992</ele>
<time>2025-12-29T10:41:50.336Z</time>
</trkpt>
<trkpt lat="30.9231600" lon="35.3019600">
<ele>-227.320007</ele>
<time>2025-12-29T10:41:50.336Z</time>
</trkpt>
<trkpt lat="30.9232500" lon="35.3020600">
<ele>-226.850006</ele>
<time>2025-12-29T10:41:50.336Z</time>
</trkpt>
<trkpt lat="30.9233100" lon="35.3021900">
<ele>-226.320007</ele>
<time>2025-12-29T10:41:50.336Z</time>
</trkpt>
<trkpt lat="30.9233500" lon="35.3023700">
<ele>-223.139999</ele>
<time>2025-12-29T10:41:50.336Z</time>
</trkpt>
<trkpt lat="30.9233500" lon="35.3025000">
<ele>-220.940002</ele>
<time>2025-12-29T10:41:50.336Z</time>
</trkpt>
<trkpt lat="30.9233100" lon="35.3025800">
<ele>-221.600006</ele>
<time>2025-12-29T10:41:50.336Z</time>
</trkpt>
<trkpt lat="30.9231100" lon="35.3028000">
<ele>-224.990005</ele>
<time>2025-12-29T10:41:50.336Z</time>
</trkpt>
<trkpt lat="30.9230800" lon="35.3028700">
<ele>-225.319992</ele>
<time>2025-12-29T10:41:50.336Z</time>
</trkpt>
<trkpt lat="30.9230200" lon="35.3031100">
<ele>-225.010010</ele>
<time>2025-12-29T10:41:50.336Z</time>
</trkpt>
<trkpt lat="30.9229700" lon="35.3031700">
<ele>-224.950012</ele>
<time>2025-12-29T10:41:50.336Z</time>
</trkpt>
<trkpt lat="30.9228700" lon="35.3032500">
<ele>-224.699997</ele>
<time>2025-12-29T10:41:50.336Z</time>
</trkpt>
<trkpt lat="30.9228300" lon="35.3033100">
<ele>-224.220001</ele>
<time>2025-12-29T10:41:50.336Z</time>
</trkpt>
<trkpt lat="30.9227900" lon="35.3035800">
<ele>-223.069992</ele>
<time>2025-12-29T10:41:50.336Z</time>
</trkpt>
<trkpt lat="30.9226700" lon="35.3037800">
<ele>-223.389999</ele>
<time>2025-12-29T10:41:50.336Z</time>
</trkpt>
<trkpt lat="30.9226100" lon="35.3038500">
<ele>-223.600006</ele>
<time>2025-12-29T10:41:50.336Z</time>
</trkpt>
<trkpt lat="30.9225400" lon="35.3038700">
<ele>-223.859985</ele>
<time>2025-12-29T10:41:50.336Z</time>
</trkpt>
<trkpt lat="30.9224700" lon="35.3038700">
<ele>-224.320007</ele>
<time>2025-12-29T10:41:50.336Z</time>
</trkpt>
<trkpt lat="30.9222400" lon="35.3038300">
<ele>-226.810013</ele>
<time>2025-12-29T10:41:50.336Z</time>
</trkpt>
<trkpt lat="30.9220400" lon="35.3037600">
<ele>-228.010010</ele>
<time>2025-12-29T10:41:50.336Z</time>
</trkpt>
<trkpt lat="30.9219300" lon="35.3037100">
<ele>-228.419998</ele>
<time>2025-12-29T10:41:50.336Z</time>
</trkpt>
<trkpt lat="30.9217900" lon="35.3035500">
<ele>-230.179993</ele>
<time>2025-12-29T10:41:50.336Z</time>
</trkpt>
<trkpt lat="30.9217300" lon="35.3035100">
<ele>-230.929993</ele>
<time>2025-12-29T10:41:50.336Z</time>
</trkpt>
<trkpt lat="30.9216900" lon="35.3035200">
<ele>-231.159988</ele>
<time>2025-12-29T10:41:50.336Z</time>
</trkpt>
<trkpt lat="30.9216300" lon="35.3035600">
<ele>-231.179993</ele>
<time>2025-12-29T10:41:50.336Z</time>
</trkpt>
<trkpt lat="30.9214200" lon="35.3038200">
<ele>-229.330002</ele>
<time>2025-12-29T10:41:50.336Z</time>
</trkpt>
<trkpt lat="30.9213900" lon="35.3038900">
<ele>-229.000000</ele>
<time>2025-12-29T10:41:50.336Z</time>
</trkpt>
<trkpt lat="30.9213800" lon="35.3039700">
<ele>-229.339996</ele>
<time>2025-12-29T10:41:50.336Z</time>
</trkpt>
<trkpt lat="30.9213900" lon="35.3041800">
<ele>-230.049988</ele>
<time>2025-12-29T10:41:50.336Z</time>
</trkpt>
<trkpt lat="30.9213600" lon="35.3042700">
<ele>-230.160004</ele>
<time>2025-12-29T10:41:50.336Z</time>
</trkpt>
<trkpt lat="30.9213300" lon="35.3043200">
<ele>-230.130005</ele>
<time>2025-12-29T10:41:50.336Z</time>
</trkpt>
<trkpt lat="30.9212500" lon="35.3043800">
<ele>-229.769989</ele>
<time>2025-12-29T10:41:50.336Z</time>
</trkpt>
<trkpt lat="30.9210200" lon="35.3045100">
<ele>-229.169998</ele>
<time>2025-12-29T10:41:50.336Z</time>
</trkpt>
<trkpt lat="30.9209500" lon="35.3045800">
<ele>-229.010010</ele>
<time>2025-12-29T10:41:50.336Z</time>
</trkpt>
<trkpt lat="30.9209500" lon="35.3046600">
<ele>-228.679993</ele>
<time>2025-12-29T10:41:50.336Z</time>
</trkpt>
<trkpt lat="30.9209700" lon="35.3047300">
<ele>-228.520004</ele>
<time>2025-12-29T10:41:50.336Z</time>
</trkpt>
<trkpt lat="30.9211400" lon="35.3048900">
<ele>-230.689987</ele>
<time>2025-12-29T10:41:50.336Z</time>
</trkpt>
<trkpt lat="30.9213800" lon="35.3051900">
<ele>-236.570007</ele>
<time>2025-12-29T10:41:50.336Z</time>
</trkpt>
<trkpt lat="30.9214700" lon="35.3052900">
<ele>-236.750000</ele>
<time>2025-12-29T10:41:50.336Z</time>
</trkpt>
<trkpt lat="30.9216600" lon="35.3054400">
<ele>-236.610001</ele>
<time>2025-12-29T10:41:50.336Z</time>
</trkpt>
<trkpt lat="30.9217000" lon="35.3055300">
<ele>-236.429993</ele>
<time>2025-12-29T10:41:50.336Z</time>
</trkpt>
<trkpt lat="30.9217700" lon="35.3058000">
<ele>-235.509995</ele>
<time>2025-12-29T10:41:50.336Z</time>
</trkpt>
<trkpt lat="30.9217900" lon="35.3059400">
<ele>-235.650009</ele>
<time>2025-12-29T10:41:50.336Z</time>
</trkpt>
<trkpt lat="30.9217800" lon="35.3061300">
<ele>-236.440002</ele>
<time>2025-12-29T10:41:50.336Z</time>
</trkpt>
<trkpt lat="30.9217600" lon="35.3061800">
<ele>-236.570007</ele>
<time>2025-12-29T10:41:50.336Z</time>
</trkpt>
<trkpt lat="30.9216700" lon="35.3063100">
<ele>-237.500000</ele>
<time>2025-12-29T10:41:50.336Z</time>
</trkpt>
<trkpt lat="30.9216400" lon="35.3063800">
<ele>-237.349991</ele>
<time>2025-12-29T10:41:50.336Z</time>
</trkpt>
<trkpt lat="30.9216400" lon="35.3066100">
<ele>-235.619995</ele>
<time>2025-12-29T10:41:50.336Z</time>
</trkpt>
<trkpt lat="30.9216100" lon="35.3067600">
<ele>-234.059998</ele>
<time>2025-12-29T10:41:50.336Z</time>
</trkpt>
<trkpt lat="30.9215700" lon="35.3068400">
<ele>-233.199997</ele>
<time>2025-12-29T10:41:50.336Z</time>
</trkpt>
<trkpt lat="30.9215100" lon="35.3069300">
<ele>-232.339996</ele>
<time>2025-12-29T10:41:50.336Z</time>
</trkpt>
<trkpt lat="30.9213000" lon="35.3071100">
<ele>-232.910004</ele>
<time>2025-12-29T10:41:50.336Z</time>
</trkpt>
<trkpt lat="30.9211800" lon="35.3071900">
<ele>-233.529999</ele>
<time>2025-12-29T10:41:50.336Z</time>
</trkpt>
<trkpt lat="30.9211100" lon="35.3072100">
<ele>-234.009995</ele>
<time>2025-12-29T10:41:50.336Z</time>
</trkpt>
<trkpt lat="30.9208800" lon="35.3072100">
<ele>-236.420013</ele>
<time>2025-12-29T10:41:50.336Z</time>
</trkpt>
<trkpt lat="30.9207400" lon="35.3072400">
<ele>-237.649994</ele>
<time>2025-12-29T10:41:50.336Z</time>
</trkpt>
<trkpt lat="30.9206700" lon="35.3073000">
<ele>-238.009995</ele>
<time>2025-12-29T10:41:50.336Z</time>
</trkpt>
<trkpt lat="30.9206300" lon="35.3073800">
<ele>-238.050003</ele>
<time>2025-12-29T10:41:50.336Z</time>
</trkpt>
<trkpt lat="30.9206100" lon="35.3075200">
<ele>-237.570007</ele>
<time>2025-12-29T10:41:50.336Z</time>
</trkpt>
<trkpt lat="30.9206300" lon="35.3076200">
<ele>-236.470001</ele>
<time>2025-12-29T10:41:50.336Z</time>
</trkpt>
<trkpt lat="30.9206700" lon="35.3076900">
<ele>-235.979996</ele>
<time>2025-12-29T10:41:50.336Z</time>
</trkpt>
<trkpt lat="30.9207500" lon="35.3077800">
<ele>-236.089996</ele>
<time>2025-12-29T10:41:50.336Z</time>
</trkpt>
<trkpt lat="30.9210500" lon="35.3080500">
<ele>-236.580002</ele>
<time>2025-12-29T10:41:50.336Z</time>
</trkpt>
<trkpt lat="30.9212000" lon="35.3081100">
<ele>-237.239990</ele>
<time>2025-12-29T10:41:50.336Z</time>
</trkpt>
<trkpt lat="30.9212800" lon="35.3081000">
<ele>-238.029999</ele>
<time>2025-12-29T10:41:50.336Z</time>
</trkpt>
<trkpt lat="30.9214700" lon="35.3080300">
<ele>-238.499985</ele>
<time>2025-12-29T10:41:50.336Z</time>
</trkpt>
<trkpt lat="30.9215400" lon="35.3080500">
<ele>-238.410004</ele>
<time>2025-12-29T10:41:50.336Z</time>
</trkpt>
<trkpt lat="30.9216100" lon="35.3081800">
<ele>-238.919998</ele>
<time>2025-12-29T10:41:50.336Z</time>
</trkpt>
<trkpt lat="30.9217200" lon="35.3083600">
<ele>-240.139999</ele>
<time>2025-12-29T10:41:50.336Z</time>
</trkpt>
<trkpt lat="30.9217600" lon="35.3084900">
<ele>-240.559998</ele>
<time>2025-12-29T10:41:50.336Z</time>
</trkpt>
<trkpt lat="30.9217700" lon="35.3085700">
<ele>-240.750000</ele>
<time>2025-12-29T10:41:50.336Z</time>
</trkpt>
<trkpt lat="30.9216700" lon="35.3091000">
<ele>-237.940002</ele>
<time>2025-12-29T10:41:50.336Z</time>
</trkpt>
<trkpt lat="30.9216400" lon="35.3094300">
<ele>-235.289993</ele>
<time>2025-12-29T10:41:50.336Z</time>
</trkpt>
<trkpt lat="30.9216400" lon="35.3095400">
<ele>-234.440002</ele>
<time>2025-12-29T10:41:50.336Z</time>
</trkpt>
<trkpt lat="30.9216600" lon="35.3096700">
<ele>-233.389999</ele>
<time>2025-12-29T10:41:50.336Z</time>
</trkpt>
<trkpt lat="30.9217000" lon="35.3097500">
<ele>-233.029999</ele>
<time>2025-12-29T10:41:50.336Z</time>
</trkpt>
<trkpt lat="30.9218500" lon="35.3099400">
<ele>-233.389999</ele>
<time>2025-12-29T10:41:50.336Z</time>
</trkpt>
<trkpt lat="30.9220400" lon="35.3101400">
<ele>-236.400009</ele>
<time>2025-12-29T10:41:50.336Z</time>
</trkpt>
<trkpt lat="30.9221900" lon="35.3103400">
<ele>-239.959991</ele>
<time>2025-12-29T10:41:50.336Z</time>
</trkpt>
<trkpt lat="30.9222500" lon="35.3103900">
<ele>-239.890015</ele>
<time>2025-12-29T10:41:50.336Z</time>
</trkpt>
<trkpt lat="30.9223200" lon="35.3104100">
<ele>-238.990005</ele>
<time>2025-12-29T10:41:50.336Z</time>
</trkpt>
<trkpt lat="30.9225300" lon="35.3104400">
<ele>-236.680008</ele>
<time>2025-12-29T10:41:50.336Z</time>
</trkpt>
<trkpt lat="30.9226200" lon="35.3105000">
<ele>-235.880005</ele>
<time>2025-12-29T10:41:50.336Z</time>
</trkpt>
<trkpt lat="30.9226600" lon="35.3105500">
<ele>-235.449997</ele>
<time>2025-12-29T10:41:50.336Z</time>
</trkpt>
<trkpt lat="30.9226800" lon="35.3106300">
<ele>-235.430008</ele>
<time>2025-12-29T10:41:50.336Z</time>
</trkpt>
<trkpt lat="30.9226700" lon="35.3106700">
<ele>-235.480011</ele>
<time>2025-12-29T10:41:50.336Z</time>
</trkpt>
<trkpt lat="30.9226300" lon="35.3107400">
<ele>-235.490005</ele>
<time>2025-12-29T10:41:50.336Z</time>
</trkpt>
<trkpt lat="30.9224200" lon="35.3110100">
<ele>-236.559998</ele>
<time>2025-12-29T10:41:50.336Z</time>
</trkpt>
<trkpt lat="30.9220900" lon="35.3112300">
<ele>-237.859985</ele>
<time>2025-12-29T10:41:50.336Z</time>
</trkpt>
<trkpt lat="30.9219600" lon="35.3112500">
<ele>-238.000000</ele>
<time>2025-12-29T10:41:50.336Z</time>
</trkpt>
<trkpt lat="30.9217000" lon="35.3112200">
<ele>-240.930008</ele>
<time>2025-12-29T10:41:50.336Z</time>
</trkpt>
<trkpt lat="30.9215000" lon="35.3111200">
<ele>-242.229996</ele>
<time>2025-12-29T10:41:50.336Z</time>
</trkpt>
<trkpt lat="30.9213900" lon="35.3111100">
<ele>-242.990005</ele>
<time>2025-12-29T10:41:50.336Z</time>
</trkpt>
<trkpt lat="30.9213400" lon="35.3111400">
<ele>-242.930008</ele>
<time>2025-12-29T10:41:50.336Z</time>
</trkpt>
<trkpt lat="30.9212400" lon="35.3112500">
<ele>-242.959991</ele>
<time>2025-12-29T10:41:50.336Z</time>
</trkpt>
<trkpt lat="30.9211700" lon="35.3113600">
<ele>-243.110001</ele>
<time>2025-12-29T10:41:50.336Z</time>
</trkpt>
<trkpt lat="30.9211300" lon="35.3114600">
<ele>-242.849991</ele>
<time>2025-12-29T10:41:50.336Z</time>
</trkpt>
<trkpt lat="30.9211200" lon="35.3116100">
<ele>-242.289993</ele>
<time>2025-12-29T10:41:50.336Z</time>
</trkpt>
<trkpt lat="30.9211400" lon="35.3117900">
<ele>-241.869995</ele>
<time>2025-12-29T10:41:50.336Z</time>
</trkpt>
<trkpt lat="30.9211200" lon="35.3121600">
<ele>-241.150009</ele>
<time>2025-12-29T10:41:50.336Z</time>
</trkpt>
<trkpt lat="30.9211400" lon="35.3123200">
<ele>-241.839996</ele>
<time>2025-12-29T10:41:50.336Z</time>
</trkpt>
<trkpt lat="30.9211800" lon="35.3124400">
<ele>-242.830002</ele>
<time>2025-12-29T10:41:50.336Z</time>
</trkpt>
<trkpt lat="30.9212800" lon="35.3125100">
<ele>-244.409988</ele>
<time>2025-12-29T10:41:50.336Z</time>
</trkpt>
<trkpt lat="30.9214400" lon="35.3125800">
<ele>-245.840012</ele>
<time>2025-12-29T10:41:50.336Z</time>
</trkpt>
<trkpt lat="30.9216900" lon="35.3130700">
<ele>-242.940002</ele>
<time>2025-12-29T10:41:50.336Z</time>
</trkpt>
<trkpt lat="30.9218900" lon="35.3134800">
<ele>-241.300003</ele>
<time>2025-12-29T10:41:50.336Z</time>
</trkpt>
<trkpt lat="30.9219100" lon="35.3135600">
<ele>-241.229996</ele>
<time>2025-12-29T10:41:50.336Z</time>
</trkpt>
<trkpt lat="30.9219100" lon="35.3136900">
<ele>-242.240005</ele>
<time>2025-12-29T10:41:50.336Z</time>
</trkpt>
<trkpt lat="30.9219000" lon="35.3137700">
<ele>-243.240005</ele>
<time>2025-12-29T10:41:50.336Z</time>
</trkpt>
<trkpt lat="30.9218600" lon="35.3138500">
<ele>-244.000015</ele>
<time>2025-12-29T10:41:50.336Z</time>
</trkpt>
<trkpt lat="30.9217600" lon="35.3141800">
<ele>-244.660004</ele>
<time>2025-12-29T10:41:50.336Z</time>
</trkpt>
<trkpt lat="30.9215300" lon="35.3142100">
<ele>-243.580002</ele>
<time>2025-12-29T10:41:50.336Z</time>
</trkpt>
<trkpt lat="30.9214900" lon="35.3142900">
<ele>-243.650009</ele>
<time>2025-12-29T10:41:50.336Z</time>
</trkpt>
<trkpt lat="30.9214100" lon="35.3145600">
<ele>-244.800003</ele>
<time>2025-12-29T10:41:50.336Z</time>
</trkpt>
<trkpt lat="30.9214000" lon="35.3146400">
<ele>-245.380005</ele>
<time>2025-12-29T10:41:50.336Z</time>
</trkpt>
<trkpt lat="30.9214100" lon="35.3149800">
<ele>-245.849991</ele>
<time>2025-12-29T10:41:50.336Z</time>
</trkpt>
<trkpt lat="30.9215100" lon="35.3152700">
<ele>-243.180008</ele>
<time>2025-12-29T10:41:50.336Z</time>
</trkpt>
<trkpt lat="30.9215300" lon="35.3154000">
<ele>-242.540009</ele>
<time>2025-12-29T10:41:50.336Z</time>
</trkpt>
<trkpt lat="30.9215100" lon="35.3154900">
<ele>-242.459991</ele>
<time>2025-12-29T10:41:50.336Z</time>
</trkpt>
<trkpt lat="30.9214800" lon="35.3155600">
<ele>-242.690002</ele>
<time>2025-12-29T10:41:50.336Z</time>
</trkpt>
<trkpt lat="30.9213600" lon="35.3156900">
<ele>-244.470001</ele>
<time>2025-12-29T10:41:50.336Z</time>
</trkpt>
<trkpt lat="30.9212300" lon="35.3157400">
<ele>-246.669998</ele>
<time>2025-12-29T10:41:50.336Z</time>
</trkpt>
<trkpt lat="30.9208900" lon="35.3158000">
<ele>-250.279999</ele>
<time>2025-12-29T10:41:50.336Z</time>
</trkpt>
<trkpt lat="30.9207400" lon="35.3158900">
<ele>-249.650009</ele>
<time>2025-12-29T10:41:50.336Z</time>
</trkpt>
<trkpt lat="30.9206500" lon="35.3160400">
<ele>-248.020004</ele>
<time>2025-12-29T10:41:50.336Z</time>
</trkpt>
<trkpt lat="30.9205400" lon="35.3163000">
<ele>-246.869995</ele>
<time>2025-12-29T10:41:50.336Z</time>
</trkpt>
<trkpt lat="30.9204400" lon="35.3164300">
<ele>-245.670013</ele>
<time>2025-12-29T10:41:50.336Z</time>
</trkpt>
<trkpt lat="30.9202900" lon="35.3165800">
<ele>-244.100006</ele>
<time>2025-12-29T10:41:50.336Z</time>
</trkpt>
<trkpt lat="30.9200500" lon="35.3170300">
<ele>-248.380005</ele>
<time>2025-12-29T10:41:50.336Z</time>
</trkpt>
<trkpt lat="30.9199700" lon="35.3171100">
<ele>-249.900009</ele>
<time>2025-12-29T10:41:50.336Z</time>
</trkpt>
<trkpt lat="30.9198700" lon="35.3171800">
<ele>-251.009995</ele>
<time>2025-12-29T10:41:50.336Z</time>
</trkpt>
<trkpt lat="30.9196500" lon="35.3172700">
<ele>-251.649994</ele>
<time>2025-12-29T10:41:50.336Z</time>
</trkpt>
<trkpt lat="30.9196100" lon="35.3173100">
<ele>-251.340012</ele>
<time>2025-12-29T10:41:50.336Z</time>
</trkpt>
<trkpt lat="30.9195700" lon="35.3173800">
<ele>-250.829987</ele>
<time>2025-12-29T10:41:50.336Z</time>
</trkpt>
<trkpt lat="30.9195600" lon="35.3175000">
<ele>-250.250015</ele>
<time>2025-12-29T10:41:50.336Z</time>
</trkpt>
<trkpt lat="30.9196300" lon="35.3177300">
<ele>-250.180008</ele>
<time>2025-12-29T10:41:50.336Z</time>
</trkpt>
<trkpt lat="30.9197100" lon="35.3178400">
<ele>-250.880005</ele>
<time>2025-12-29T10:41:50.336Z</time>
</trkpt>
<trkpt lat="30.9199400" lon="35.3180600">
<ele>-254.910004</ele>
<time>2025-12-29T10:41:50.336Z</time>
</trkpt>
<trkpt lat="30.9201900" lon="35.3184000">
<ele>-255.459991</ele>
<time>2025-12-29T10:41:50.336Z</time>
</trkpt>
<trkpt lat="30.9204400" lon="35.3186500">
<ele>-254.309998</ele>
<time>2025-12-29T10:41:50.336Z</time>
</trkpt>
<trkpt lat="30.9206200" lon="35.3189300">
<ele>-252.070007</ele>
<time>2025-12-29T10:41:50.336Z</time>
</trkpt>
<trkpt lat="30.9207400" lon="35.3191800">
<ele>-250.339996</ele>
<time>2025-12-29T10:41:50.336Z</time>
</trkpt>
<trkpt lat="30.9207300" lon="35.3193800">
<ele>-250.489990</ele>
<time>2025-12-29T10:41:50.336Z</time>
</trkpt>
<trkpt lat="30.9207000" lon="35.3194900">
<ele>-250.919998</ele>
<time>2025-12-29T10:41:50.336Z</time>
</trkpt>
<trkpt lat="30.9206100" lon="35.3197200">
<ele>-252.219986</ele>
<time>2025-12-29T10:41:50.336Z</time>
</trkpt>
<trkpt lat="30.9203100" lon="35.3201200">
<ele>-257.919983</ele>
<time>2025-12-29T10:41:50.336Z</time>
</trkpt>
<trkpt lat="30.9202700" lon="35.3204100">
<ele>-257.359985</ele>
<time>2025-12-29T10:41:50.336Z</time>
</trkpt>
<trkpt lat="30.9201600" lon="35.3208200">
<ele>-253.910004</ele>
<time>2025-12-29T10:41:50.336Z</time>
</trkpt>
<trkpt lat="30.9201500" lon="35.3210500">
<ele>-254.120010</ele>
<time>2025-12-29T10:41:50.336Z</time>
</trkpt>
<trkpt lat="30.9201800" lon="35.3213100">
<ele>-255.349991</ele>
<time>2025-12-29T10:41:50.336Z</time>
</trkpt>
<trkpt lat="30.9202000" lon="35.3214300">
<ele>-255.960007</ele>
<time>2025-12-29T10:41:50.336Z</time>
</trkpt>
<trkpt lat="30.9202700" lon="35.3216200">
<ele>-257.760010</ele>
<time>2025-12-29T10:41:50.336Z</time>
</trkpt>
<trkpt lat="30.9202900" lon="35.3217500">
<ele>-257.750000</ele>
<time>2025-12-29T10:41:50.336Z</time>
</trkpt>
<trkpt lat="30.9202900" lon="35.3218600">
<ele>-257.429993</ele>
<time>2025-12-29T10:41:50.336Z</time>
</trkpt>
<trkpt lat="30.9201600" lon="35.3221700">
<ele>-250.199997</ele>
<time>2025-12-29T10:41:50.336Z</time>
</trkpt>
<trkpt lat="30.9201500" lon="35.3223700">
<ele>-247.389999</ele>
<time>2025-12-29T10:41:50.336Z</time>
</trkpt>
<trkpt lat="30.9201700" lon="35.3224300">
<ele>-247.029999</ele>
<time>2025-12-29T10:41:50.336Z</time>
</trkpt>
<trkpt lat="30.9202400" lon="35.3225100">
<ele>-247.259995</ele>
<time>2025-12-29T10:41:50.336Z</time>
</trkpt>
<trkpt lat="30.9203500" lon="35.3226000">
<ele>-249.269989</ele>
<time>2025-12-29T10:41:50.336Z</time>
</trkpt>
<trkpt lat="30.9206700" lon="35.3227600">
<ele>-253.630005</ele>
<time>2025-12-29T10:41:50.336Z</time>
</trkpt>
<trkpt lat="30.9207900" lon="35.3227900">
<ele>-253.710007</ele>
<time>2025-12-29T10:41:50.336Z</time>
</trkpt>
<trkpt lat="30.9211000" lon="35.3228100">
<ele>-253.869995</ele>
<time>2025-12-29T10:41:50.336Z</time>
</trkpt>
<trkpt lat="30.9217100" lon="35.3225800">
<ele>-259.710022</ele>
<time>2025-12-29T10:41:50.336Z</time>
</trkpt>
<trkpt lat="30.9218500" lon="35.3225700">
<ele>-259.750000</ele>
<time>2025-12-29T10:41:50.336Z</time>
</trkpt>
<trkpt lat="30.9220800" lon="35.3226200">
<ele>-258.459991</ele>
<time>2025-12-29T10:41:50.336Z</time>
</trkpt>
<trkpt lat="30.9223800" lon="35.3227500">
<ele>-257.619995</ele>
<time>2025-12-29T10:41:50.336Z</time>
</trkpt>
<trkpt lat="30.9225000" lon="35.3227600">
<ele>-256.869995</ele>
<time>2025-12-29T10:41:50.336Z</time>
</trkpt>
<trkpt lat="30.9227800" lon="35.3226900">
<ele>-256.670013</ele>
<time>2025-12-29T10:41:50.336Z</time>
</trkpt>
<trkpt lat="30.9228700" lon="35.3227100">
<ele>-256.339996</ele>
<time>2025-12-29T10:41:50.336Z</time>
</trkpt>
<trkpt lat="30.9229100" lon="35.3227500">
<ele>-256.380005</ele>
<time>2025-12-29T10:41:50.336Z</time>
</trkpt>
<trkpt lat="30.9229500" lon="35.3228200">
<ele>-256.380005</ele>
<time>2025-12-29T10:41:50.336Z</time>
</trkpt>
<trkpt lat="30.9229500" lon="35.3228900">
<ele>-256.380005</ele>
<time>2025-12-29T10:41:50.336Z</time>
</trkpt>
<trkpt lat="30.9229400" lon="35.3230600">
<ele>-256.440002</ele>
<time>2025-12-29T10:41:50.336Z</time>
</trkpt>
<trkpt lat="30.9229600" lon="35.3233900">
<ele>-257.800018</ele>
<time>2025-12-29T10:41:50.336Z</time>
</trkpt>
<trkpt lat="30.9230400" lon="35.3237500">
<ele>-256.029999</ele>
<time>2025-12-29T10:41:50.336Z</time>
</trkpt>
<trkpt lat="30.9231700" lon="35.3241500">
<ele>-254.610001</ele>
<time>2025-12-29T10:41:50.336Z</time>
</trkpt>
<trkpt lat="30.9231700" lon="35.3242900">
<ele>-253.699997</ele>
<time>2025-12-29T10:41:50.336Z</time>
</trkpt>
<trkpt lat="30.9231000" lon="35.3244100">
<ele>-253.089996</ele>
<time>2025-12-29T10:41:50.336Z</time>
</trkpt>
<trkpt lat="30.9230200" lon="35.3244400">
<ele>-253.160004</ele>
<time>2025-12-29T10:41:50.336Z</time>
</trkpt>
<trkpt lat="30.9228300" lon="35.3244100">
<ele>-254.060013</ele>
<time>2025-12-29T10:41:50.336Z</time>
</trkpt>
<trkpt lat="30.9226300" lon="35.3244100">
<ele>-253.119995</ele>
<time>2025-12-29T10:41:50.336Z</time>
</trkpt>
<trkpt lat="30.9223300" lon="35.3245000">
<ele>-251.220001</ele>
<time>2025-12-29T10:41:50.336Z</time>
</trkpt>
<trkpt lat="30.9222200" lon="35.3245500">
<ele>-250.250015</ele>
<time>2025-12-29T10:41:50.336Z</time>
</trkpt>
<trkpt lat="30.9221700" lon="35.3246100">
<ele>-250.000000</ele>
<time>2025-12-29T10:41:50.336Z</time>
</trkpt>
<trkpt lat="30.9221400" lon="35.3246800">
<ele>-249.600006</ele>
<time>2025-12-29T10:41:50.336Z</time>
</trkpt>
<trkpt lat="30.9221300" lon="35.3247500">
<ele>-249.200012</ele>
<time>2025-12-29T10:41:50.336Z</time>
</trkpt>
<trkpt lat="30.9221500" lon="35.3248400">
<ele>-248.730011</ele>
<time>2025-12-29T10:41:50.336Z</time>
</trkpt>
<trkpt lat="30.9222900" lon="35.3251200">
<ele>-249.979996</ele>
<time>2025-12-29T10:41:50.336Z</time>
</trkpt>
<trkpt lat="30.9224000" lon="35.3252300">
<ele>-252.329987</ele>
<time>2025-12-29T10:41:50.336Z</time>
</trkpt>
<trkpt lat="30.9224800" lon="35.3252800">
<ele>-253.719986</ele>
<time>2025-12-29T10:41:50.336Z</time>
</trkpt>
<trkpt lat="30.9225600" lon="35.3253000">
<ele>-254.889999</ele>
<time>2025-12-29T10:41:50.336Z</time>
</trkpt>
<trkpt lat="30.9227600" lon="35.3253300">
<ele>-257.399994</ele>
<time>2025-12-29T10:41:50.336Z</time>
</trkpt>
<trkpt lat="30.9229000" lon="35.3253700">
<ele>-256.459991</ele>
<time>2025-12-29T10:41:50.336Z</time>
</trkpt>
<trkpt lat="30.9229900" lon="35.3254200">
<ele>-255.450012</ele>
<time>2025-12-29T10:41:50.336Z</time>
</trkpt>
<trkpt lat="30.9231100" lon="35.3255100">
<ele>-253.839996</ele>
<time>2025-12-29T10:41:50.336Z</time>
</trkpt>
<trkpt lat="30.9231500" lon="35.3255900">
<ele>-253.240005</ele>
<time>2025-12-29T10:41:50.336Z</time>
</trkpt>
<trkpt lat="30.9231500" lon="35.3256600">
<ele>-253.079987</ele>
<time>2025-12-29T10:41:50.336Z</time>
</trkpt>
<trkpt lat="30.9231400" lon="35.3257100">
<ele>-252.960007</ele>
<time>2025-12-29T10:41:50.336Z</time>
</trkpt>
<trkpt lat="30.9230800" lon="35.3257700">
<ele>-252.550003</ele>
<time>2025-12-29T10:41:50.336Z</time>
</trkpt>
<trkpt lat="30.9229700" lon="35.3258400">
<ele>-251.960007</ele>
<time>2025-12-29T10:41:50.336Z</time>
</trkpt>
<trkpt lat="30.9228700" lon="35.3259300">
<ele>-251.190002</ele>
<time>2025-12-29T10:41:50.336Z</time>
</trkpt>
<trkpt lat="30.9228000" lon="35.3260600">
<ele>-249.679993</ele>
<time>2025-12-29T10:41:50.336Z</time>
</trkpt>
<trkpt lat="30.9227900" lon="35.3262200">
<ele>-248.750000</ele>
<time>2025-12-29T10:41:50.336Z</time>
</trkpt>
<trkpt lat="30.9228300" lon="35.3263700">
<ele>-248.970001</ele>
<time>2025-12-29T10:41:50.336Z</time>
</trkpt>
<trkpt lat="30.9229000" lon="35.3265000">
<ele>-250.650009</ele>
<time>2025-12-29T10:41:50.336Z</time>
</trkpt>
<trkpt lat="30.9233300" lon="35.3269500">
<ele>-256.889984</ele>
<time>2025-12-29T10:41:50.336Z</time>
</trkpt>
<trkpt lat="30.9234400" lon="35.3270500">
<ele>-257.450012</ele>
<time>2025-12-29T10:41:50.336Z</time>
</trkpt>
<trkpt lat="30.9237900" lon="35.3272700">
<ele>-260.410004</ele>
<time>2025-12-29T10:41:50.336Z</time>
</trkpt>
<trkpt lat="30.9239200" lon="35.3273800">
<ele>-259.949982</ele>
<time>2025-12-29T10:41:50.336Z</time>
</trkpt>
<trkpt lat="30.9240700" lon="35.3275300">
<ele>-258.070007</ele>
<time>2025-12-29T10:41:50.336Z</time>
</trkpt>
<trkpt lat="30.9241800" lon="35.3277000">
<ele>-258.369995</ele>
<time>2025-12-29T10:41:50.336Z</time>
</trkpt>
<trkpt lat="30.9243000" lon="35.3280200">
<ele>-258.100006</ele>
<time>2025-12-29T10:41:50.336Z</time>
</trkpt>
<trkpt lat="30.9242900" lon="35.3281500">
<ele>-257.279999</ele>
<time>2025-12-29T10:41:50.336Z</time>
</trkpt>
<trkpt lat="30.9242100" lon="35.3283300">
<ele>-256.559998</ele>
<time>2025-12-29T10:41:50.336Z</time>
</trkpt>
<trkpt lat="30.9241900" lon="35.3283900">
<ele>-256.410004</ele>
<time>2025-12-29T10:41:50.336Z</time>
</trkpt>
<trkpt lat="30.9241900" lon="35.3285600">
<ele>-255.389999</ele>
<time>2025-12-29T10:41:50.336Z</time>
</trkpt>
<trkpt lat="30.9242100" lon="35.3286700">
<ele>-255.649994</ele>
<time>2025-12-29T10:41:50.336Z</time>
</trkpt>
<trkpt lat="30.9242400" lon="35.3287600">
<ele>-256.619995</ele>
<time>2025-12-29T10:41:50.336Z</time>
</trkpt>
<trkpt lat="30.9243100" lon="35.3288400">
<ele>-258.010010</ele>
<time>2025-12-29T10:41:50.336Z</time>
</trkpt>
<trkpt lat="30.9243800" lon="35.3288800">
<ele>-259.190002</ele>
<time>2025-12-29T10:41:50.336Z</time>
</trkpt>
<trkpt lat="30.9246700" lon="35.3289500">
<ele>-264.899994</ele>
<time>2025-12-29T10:41:50.336Z</time>
</trkpt>
<trkpt lat="30.9249000" lon="35.3290400">
<ele>-267.869995</ele>
<time>2025-12-29T10:41:50.336Z</time>
</trkpt>
<trkpt lat="30.9249700" lon="35.3290800">
<ele>-268.979980</ele>
<time>2025-12-29T10:41:50.336Z</time>
</trkpt>
<trkpt lat="30.9250800" lon="35.3292100">
<ele>-269.989990</ele>
<time>2025-12-29T10:41:50.336Z</time>
</trkpt>
<trkpt lat="30.9251200" lon="35.3293300">
<ele>-271.269989</ele>
<time>2025-12-29T10:41:50.336Z</time>
</trkpt>
<trkpt lat="30.9251400" lon="35.3294700">
<ele>-272.850006</ele>
<time>2025-12-29T10:41:50.336Z</time>
</trkpt>
<trkpt lat="30.9251100" lon="35.3296600">
<ele>-272.169983</ele>
<time>2025-12-29T10:41:50.336Z</time>
</trkpt>
<trkpt lat="30.9250500" lon="35.3297500">
<ele>-271.979980</ele>
<time>2025-12-29T10:41:50.336Z</time>
</trkpt>
<trkpt lat="30.9250100" lon="35.3297900">
<ele>-271.679993</ele>
<time>2025-12-29T10:41:50.336Z</time>
</trkpt>
<trkpt lat="30.9248900" lon="35.3298400">
<ele>-270.419983</ele>
<time>2025-12-29T10:41:50.336Z</time>
</trkpt>
<trkpt lat="30.9245900" lon="35.3298800">
<ele>-267.730011</ele>
<time>2025-12-29T10:41:50.336Z</time>
</trkpt>
<trkpt lat="30.9244900" lon="35.3299300">
<ele>-266.450012</ele>
<time>2025-12-29T10:41:50.336Z</time>
</trkpt>
<trkpt lat="30.9244300" lon="35.3299900">
<ele>-265.790009</ele>
<time>2025-12-29T10:41:50.336Z</time>
</trkpt>
<trkpt lat="30.9243700" lon="35.3301200">
<ele>-264.610016</ele>
<time>2025-12-29T10:41:50.336Z</time>
</trkpt>
<trkpt lat="30.9243700" lon="35.3302000">
<ele>-264.399994</ele>
<time>2025-12-29T10:41:50.336Z</time>
</trkpt>
<trkpt lat="30.9243900" lon="35.3302700">
<ele>-264.429993</ele>
<time>2025-12-29T10:41:50.336Z</time>
</trkpt>
<trkpt lat="30.9244600" lon="35.3303500">
<ele>-264.220001</ele>
<time>2025-12-29T10:41:50.336Z</time>
</trkpt>
<trkpt lat="30.9245300" lon="35.3303700">
<ele>-264.000000</ele>
<time>2025-12-29T10:41:50.336Z</time>
</trkpt>
<trkpt lat="30.9248100" lon="35.3304000">
<ele>-263.359985</ele>
<time>2025-12-29T10:41:50.336Z</time>
</trkpt>
<trkpt lat="30.9250900" lon="35.3304700">
<ele>-261.919983</ele>
<time>2025-12-29T10:41:50.336Z</time>
</trkpt>
<trkpt lat="30.9252500" lon="35.3304800">
<ele>-261.820007</ele>
<time>2025-12-29T10:41:50.336Z</time>
</trkpt>
<trkpt lat="30.9254400" lon="35.3304700">
<ele>-261.019989</ele>
<time>2025-12-29T10:41:50.336Z</time>
</trkpt>
<trkpt lat="30.9256600" lon="35.3305100">
<ele>-260.989990</ele>
<time>2025-12-29T10:41:50.336Z</time>
</trkpt>
<trkpt lat="30.9259200" lon="35.3306100">
<ele>-263.399994</ele>
<time>2025-12-29T10:41:50.336Z</time>
</trkpt>
<trkpt lat="30.9263100" lon="35.3308200">
<ele>-267.529999</ele>
<time>2025-12-29T10:41:50.336Z</time>
</trkpt>
<trkpt lat="30.9267400" lon="35.3309600">
<ele>-267.339996</ele>
<time>2025-12-29T10:41:50.336Z</time>
</trkpt>
<trkpt lat="30.9270200" lon="35.3311800">
<ele>-272.080017</ele>
<time>2025-12-29T10:41:50.336Z</time>
</trkpt>
<trkpt lat="30.9271300" lon="35.3313100">
<ele>-273.669983</ele>
<time>2025-12-29T10:41:50.336Z</time>
</trkpt>
<trkpt lat="30.9272700" lon="35.3315500">
<ele>-274.359985</ele>
<time>2025-12-29T10:41:50.336Z</time>
</trkpt>
<trkpt lat="30.9273700" lon="35.3318100">
<ele>-275.100006</ele>
<time>2025-12-29T10:41:50.336Z</time>
</trkpt>
<trkpt lat="30.9274900" lon="35.3320600">
<ele>-277.779999</ele>
<time>2025-12-29T10:41:50.336Z</time>
</trkpt>
<trkpt lat="30.9276800" lon="35.3323100">
<ele>-276.399994</ele>
<time>2025-12-29T10:41:50.336Z</time>
</trkpt>
<trkpt lat="30.9277700" lon="35.3323100">
<ele>-276.080017</ele>
<time>2025-12-29T10:41:50.336Z</time>
</trkpt>
<trkpt lat="30.9278800" lon="35.3322800">
<ele>-275.850006</ele>
<time>2025-12-29T10:41:50.336Z</time>
</trkpt>
<trkpt lat="30.9281200" lon="35.3320200">
<ele>-272.919983</ele>
<time>2025-12-29T10:41:50.336Z</time>
</trkpt>
<trkpt lat="30.9282200" lon="35.3319700">
<ele>-270.040009</ele>
<time>2025-12-29T10:41:50.336Z</time>
</trkpt>
<trkpt lat="30.9282900" lon="35.3319900">
<ele>-268.420013</ele>
<time>2025-12-29T10:41:50.336Z</time>
</trkpt>
<trkpt lat="30.9284000" lon="35.3320700">
<ele>-266.329987</ele>
<time>2025-12-29T10:41:50.336Z</time>
</trkpt>
<trkpt lat="30.9284700" lon="35.3321500">
<ele>-265.399994</ele>
<time>2025-12-29T10:41:50.336Z</time>
</trkpt>
<trkpt lat="30.9285800" lon="35.3323300">
<ele>-264.619995</ele>
<time>2025-12-29T10:41:50.336Z</time>
</trkpt>
<trkpt lat="30.9285800" lon="35.3323300">
<ele>-264.619995</ele>
<time>2025-12-29T10:41:50.336Z</time>
</trkpt>
<trkpt lat="30.9286900" lon="35.3325100">
<ele>-264.559998</ele>
<time>2025-12-29T10:41:50.336Z</time>
</trkpt>
<trkpt lat="30.9287400" lon="35.3326800">
<ele>-263.889984</ele>
<time>2025-12-29T10:41:50.336Z</time>
</trkpt>
<trkpt lat="30.9287700" lon="35.3329900">
<ele>-264.440002</ele>
<time>2025-12-29T10:41:50.336Z</time>
</trkpt>
<trkpt lat="30.9288400" lon="35.3332100">
<ele>-266.489990</ele>
<time>2025-12-29T10:41:50.336Z</time>
</trkpt>
<trkpt lat="30.9288900" lon="35.3333100">
<ele>-267.759979</ele>
<time>2025-12-29T10:41:50.336Z</time>
</trkpt>
<trkpt lat="30.9290300" lon="35.3334800">
<ele>-271.619995</ele>
<time>2025-12-29T10:41:50.336Z</time>
</trkpt>
<trkpt lat="30.9292200" lon="35.3338800">
<ele>-275.779999</ele>
<time>2025-12-29T10:41:50.336Z</time>
</trkpt>
<trkpt lat="30.9292800" lon="35.3339300">
<ele>-276.190002</ele>
<time>2025-12-29T10:41:50.336Z</time>
</trkpt>
<trkpt lat="30.9294200" lon="35.3339700">
<ele>-277.769989</ele>
<time>2025-12-29T10:41:50.336Z</time>
</trkpt>
<trkpt lat="30.9296100" lon="35.3339700">
<ele>-278.649994</ele>
<time>2025-12-29T10:41:50.336Z</time>
</trkpt>
<trkpt lat="30.9299000" lon="35.3339300">
<ele>-278.359985</ele>
<time>2025-12-29T10:41:50.336Z</time>
</trkpt>
<trkpt lat="30.9301000" lon="35.3339700">
<ele>-278.359985</ele>
<time>2025-12-29T10:41:50.336Z</time>
</trkpt>
<trkpt lat="30.9303100" lon="35.3340400">
<ele>-278.740021</ele>
<time>2025-12-29T10:41:50.336Z</time>
</trkpt>
<trkpt lat="30.9304400" lon="35.3340500">
<ele>-277.769989</ele>
<time>2025-12-29T10:41:50.336Z</time>
</trkpt>
<trkpt lat="30.9305800" lon="35.3340100">
<ele>-275.480011</ele>
<time>2025-12-29T10:41:50.336Z</time>
</trkpt>
<trkpt lat="30.9307200" lon="35.3340100">
<ele>-271.440002</ele>
<time>2025-12-29T10:41:50.336Z</time>
</trkpt>
<trkpt lat="30.9308100" lon="35.3340600">
<ele>-269.750000</ele>
<time>2025-12-29T10:41:50.336Z</time>
</trkpt>
<trkpt lat="30.9308600" lon="35.3341100">
<ele>-269.540009</ele>
<time>2025-12-29T10:41:50.336Z</time>
</trkpt>
<trkpt lat="30.9309000" lon="35.3342000">
<ele>-270.300018</ele>
<time>2025-12-29T10:41:50.336Z</time>
</trkpt>
<trkpt lat="30.9309200" lon="35.3343300">
<ele>-272.119995</ele>
<time>2025-12-29T10:41:50.336Z</time>
</trkpt>
<trkpt lat="30.9308700" lon="35.3346200">
<ele>-275.600006</ele>
<time>2025-12-29T10:41:50.336Z</time>
</trkpt>
<trkpt lat="30.9307800" lon="35.3348500">
<ele>-274.019989</ele>
<time>2025-12-29T10:41:50.336Z</time>
</trkpt>
<trkpt lat="30.9307800" lon="35.3349300">
<ele>-273.619995</ele>
<time>2025-12-29T10:41:50.336Z</time>
</trkpt>
<trkpt lat="30.9308300" lon="35.3350900">
<ele>-274.250000</ele>
<time>2025-12-29T10:41:50.336Z</time>
</trkpt>
<trkpt lat="30.9308900" lon="35.3351700">
<ele>-274.470001</ele>
<time>2025-12-29T10:41:50.336Z</time>
</trkpt>
<trkpt lat="30.9309500" lon="35.3352000">
<ele>-274.940002</ele>
<time>2025-12-29T10:41:50.336Z</time>
</trkpt>
<trkpt lat="30.9310100" lon="35.3352100">
<ele>-275.550018</ele>
<time>2025-12-29T10:41:50.336Z</time>
</trkpt>
<trkpt lat="30.9310800" lon="35.3351800">
<ele>-276.679993</ele>
<time>2025-12-29T10:41:50.336Z</time>
</trkpt>
<trkpt lat="30.9311500" lon="35.3351100">
<ele>-278.179993</ele>
<time>2025-12-29T10:41:50.336Z</time>
</trkpt>
<trkpt lat="30.9312500" lon="35.3349400">
<ele>-280.179993</ele>
<time>2025-12-29T10:41:50.336Z</time>
</trkpt>
<trkpt lat="30.9313300" lon="35.3348600">
<ele>-279.880005</ele>
<time>2025-12-29T10:41:50.336Z</time>
</trkpt>
<trkpt lat="30.9314800" lon="35.3347600">
<ele>-276.250000</ele>
<time>2025-12-29T10:41:50.336Z</time>
</trkpt>
<trkpt lat="30.9316000" lon="35.3347300">
<ele>-272.789978</ele>
<time>2025-12-29T10:41:50.336Z</time>
</trkpt>
<trkpt lat="30.9316600" lon="35.3347400">
<ele>-271.419983</ele>
<time>2025-12-29T10:41:50.336Z</time>
</trkpt>
<trkpt lat="30.9317100" lon="35.3347900">
<ele>-271.239990</ele>
<time>2025-12-29T10:41:50.336Z</time>
</trkpt>
<trkpt lat="30.9317400" lon="35.3348700">
<ele>-271.649994</ele>
<time>2025-12-29T10:41:50.336Z</time>
</trkpt>
<trkpt lat="30.9317500" lon="35.3349800">
<ele>-272.679993</ele>
<time>2025-12-29T10:41:50.336Z</time>
</trkpt>
<trkpt lat="30.9317400" lon="35.3353000">
<ele>-276.299988</ele>
<time>2025-12-29T10:41:50.336Z</time>
</trkpt>
<trkpt lat="30.9317800" lon="35.3354300">
<ele>-274.899994</ele>
<time>2025-12-29T10:41:50.336Z</time>
</trkpt>
<trkpt lat="30.9318700" lon="35.3356100">
<ele>-272.519989</ele>
<time>2025-12-29T10:41:50.336Z</time>
</trkpt>
<trkpt lat="30.9319400" lon="35.3357000">
<ele>-271.000000</ele>
<time>2025-12-29T10:41:50.336Z</time>
</trkpt>
<trkpt lat="30.9319900" lon="35.3357300">
<ele>-270.809998</ele>
<time>2025-12-29T10:41:50.336Z</time>
</trkpt>
<trkpt lat="30.9320600" lon="35.3357300">
<ele>-270.899994</ele>
<time>2025-12-29T10:41:50.336Z</time>
</trkpt>
<trkpt lat="30.9321200" lon="35.3357000">
<ele>-271.260010</ele>
<time>2025-12-29T10:41:50.336Z</time>
</trkpt>
<trkpt lat="30.9321400" lon="35.3356600">
<ele>-271.690002</ele>
<time>2025-12-29T10:41:50.336Z</time>
</trkpt>
<trkpt lat="30.9322000" lon="35.3354900">
<ele>-273.139984</ele>
<time>2025-12-29T10:41:50.336Z</time>
</trkpt>
<trkpt lat="30.9322700" lon="35.3353600">
<ele>-274.580017</ele>
<time>2025-12-29T10:41:50.336Z</time>
</trkpt>
<trkpt lat="30.9323500" lon="35.3352800">
<ele>-276.739990</ele>
<time>2025-12-29T10:41:50.336Z</time>
</trkpt>
<trkpt lat="30.9324200" lon="35.3352300">
<ele>-278.070007</ele>
<time>2025-12-29T10:41:50.336Z</time>
</trkpt>
<trkpt lat="30.9328800" lon="35.3351900">
<ele>-279.160004</ele>
<time>2025-12-29T10:41:50.336Z</time>
</trkpt>
<trkpt lat="30.9331400" lon="35.3351400">
<ele>-277.450012</ele>
<time>2025-12-29T10:41:50.336Z</time>
</trkpt>
<trkpt lat="30.9334100" lon="35.3351400">
<ele>-278.220001</ele>
<time>2025-12-29T10:41:50.336Z</time>
</trkpt>
<trkpt lat="30.9337100" lon="35.3352700">
<ele>-276.700012</ele>
<time>2025-12-29T10:41:50.336Z</time>
</trkpt>
<trkpt lat="30.9338500" lon="35.3352500">
<ele>-276.500000</ele>
<time>2025-12-29T10:41:50.336Z</time>
</trkpt>
<trkpt lat="30.9340000" lon="35.3351900">
<ele>-274.839996</ele>
<time>2025-12-29T10:41:50.336Z</time>
</trkpt>
<trkpt lat="30.9340600" lon="35.3351200">
<ele>-275.010010</ele>
<time>2025-12-29T10:41:50.336Z</time>
</trkpt>
<trkpt lat="30.9340700" lon="35.3350400">
<ele>-276.529999</ele>
<time>2025-12-29T10:41:50.336Z</time>
</trkpt>
<trkpt lat="30.9340500" lon="35.3346700">
<ele>-283.360016</ele>
<time>2025-12-29T10:41:50.336Z</time>
</trkpt>
<trkpt lat="30.9340900" lon="35.3344900">
<ele>-286.440002</ele>
<time>2025-12-29T10:41:50.336Z</time>
</trkpt>
<trkpt lat="30.9341600" lon="35.3343600">
<ele>-288.230011</ele>
<time>2025-12-29T10:41:50.336Z</time>
</trkpt>
<trkpt lat="30.9342300" lon="35.3343000">
<ele>-288.160004</ele>
<time>2025-12-29T10:41:50.336Z</time>
</trkpt>
<trkpt lat="30.9343800" lon="35.3342500">
<ele>-287.089996</ele>
<time>2025-12-29T10:41:50.336Z</time>
</trkpt>
<trkpt lat="30.9344700" lon="35.3342400">
<ele>-286.049988</ele>
<time>2025-12-29T10:41:50.336Z</time>
</trkpt>
<trkpt lat="30.9346100" lon="35.3343100">
<ele>-284.380005</ele>
<time>2025-12-29T10:41:50.336Z</time>
</trkpt>
<trkpt lat="30.9348900" lon="35.3345800">
<ele>-282.359985</ele>
<time>2025-12-29T10:41:50.336Z</time>
</trkpt>
<trkpt lat="30.9351400" lon="35.3348600">
<ele>-281.230011</ele>
<time>2025-12-29T10:41:50.336Z</time>
</trkpt>
<trkpt lat="30.9354300" lon="35.3352500">
<ele>-282.559998</ele>
<time>2025-12-29T10:41:50.336Z</time>
</trkpt>
<trkpt lat="30.9355600" lon="35.3353700">
<ele>-284.339996</ele>
<time>2025-12-29T10:41:50.336Z</time>
</trkpt>
<trkpt lat="30.9356600" lon="35.3354400">
<ele>-284.049988</ele>
<time>2025-12-29T10:41:50.336Z</time>
</trkpt>
<trkpt lat="30.9358200" lon="35.3355000">
<ele>-284.160004</ele>
<time>2025-12-29T10:41:50.336Z</time>
</trkpt>
<trkpt lat="30.9360400" lon="35.3355500">
<ele>-285.480011</ele>
<time>2025-12-29T10:41:50.336Z</time>
</trkpt>
<trkpt lat="30.9364700" lon="35.3356200">
<ele>-284.589996</ele>
<time>2025-12-29T10:41:50.336Z</time>
</trkpt>
<trkpt lat="30.9365600" lon="35.3356200">
<ele>-284.320007</ele>
<time>2025-12-29T10:41:50.336Z</time>
</trkpt>
<trkpt lat="30.9366600" lon="35.3356500">
<ele>-284.010010</ele>
<time>2025-12-29T10:41:50.336Z</time>
</trkpt>
<trkpt lat="30.9367100" lon="35.3357100">
<ele>-283.830017</ele>
<time>2025-12-29T10:41:50.336Z</time>
</trkpt>
<trkpt lat="30.9367400" lon="35.3357700">
<ele>-284.110016</ele>
<time>2025-12-29T10:41:50.336Z</time>
</trkpt>
<trkpt lat="30.9367800" lon="35.3359900">
<ele>-285.860016</ele>
<time>2025-12-29T10:41:50.336Z</time>
</trkpt>
<trkpt lat="30.9368200" lon="35.3360700">
<ele>-287.539978</ele>
<time>2025-12-29T10:41:50.336Z</time>
</trkpt>
<trkpt lat="30.9369200" lon="35.3361500">
<ele>-290.950012</ele>
<time>2025-12-29T10:41:50.336Z</time>
</trkpt>
<trkpt lat="30.9372100" lon="35.3362300">
<ele>-296.059998</ele>
<time>2025-12-29T10:41:50.336Z</time>
</trkpt>
<trkpt lat="30.9372900" lon="35.3362900">
<ele>-296.850006</ele>
<time>2025-12-29T10:41:50.336Z</time>
</trkpt>
<trkpt lat="30.9373200" lon="35.3363500">
<ele>-297.529999</ele>
<time>2025-12-29T10:41:50.336Z</time>
</trkpt>
<trkpt lat="30.9373300" lon="35.3364400">
<ele>-297.589996</ele>
<time>2025-12-29T10:41:50.336Z</time>
</trkpt>
<trkpt lat="30.9373100" lon="35.3365000">
<ele>-297.049988</ele>
<time>2025-12-29T10:41:50.336Z</time>
</trkpt>
<trkpt lat="30.9372200" lon="35.3366700">
<ele>-294.880005</ele>
<time>2025-12-29T10:41:50.336Z</time>
</trkpt>
<trkpt lat="30.9371700" lon="35.3368400">
<ele>-290.799988</ele>
<time>2025-12-29T10:41:50.336Z</time>
</trkpt>
<trkpt lat="30.9371800" lon="35.3369300">
<ele>-289.480011</ele>
<time>2025-12-29T10:41:50.336Z</time>
</trkpt>
<trkpt lat="30.9372400" lon="35.3370400">
<ele>-288.880005</ele>
<time>2025-12-29T10:41:50.336Z</time>
</trkpt>
<trkpt lat="30.9373000" lon="35.3370900">
<ele>-288.860016</ele>
<time>2025-12-29T10:41:50.336Z</time>
</trkpt>
<trkpt lat="30.9373900" lon="35.3371200">
<ele>-289.350006</ele>
<time>2025-12-29T10:41:50.336Z</time>
</trkpt>
<trkpt lat="30.9377000" lon="35.3371300">
<ele>-295.850006</ele>
<time>2025-12-29T10:41:50.336Z</time>
</trkpt>
<trkpt lat="30.9377700" lon="35.3371800">
<ele>-297.220001</ele>
<time>2025-12-29T10:41:50.336Z</time>
</trkpt>
<trkpt lat="30.9378200" lon="35.3372400">
<ele>-296.959991</ele>
<time>2025-12-29T10:41:50.336Z</time>
</trkpt>
<trkpt lat="30.9379400" lon="35.3375200">
<ele>-293.820007</ele>
<time>2025-12-29T10:41:50.336Z</time>
</trkpt>
<trkpt lat="30.9380000" lon="35.3376100">
<ele>-290.519989</ele>
<time>2025-12-29T10:41:50.336Z</time>
</trkpt>
<trkpt lat="30.9380600" lon="35.3376500">
<ele>-289.070007</ele>
<time>2025-12-29T10:41:50.336Z</time>
</trkpt>
<trkpt lat="30.9381500" lon="35.3376500">
<ele>-289.270020</ele>
<time>2025-12-29T10:41:50.336Z</time>
</trkpt>
<trkpt lat="30.9385000" lon="35.3374600">
<ele>-296.489990</ele>
<time>2025-12-29T10:41:50.336Z</time>
</trkpt>
<trkpt lat="30.9386400" lon="35.3374000">
<ele>-297.559998</ele>
<time>2025-12-29T10:41:50.336Z</time>
</trkpt>
<trkpt lat="30.9387900" lon="35.3373700">
<ele>-296.670013</ele>
<time>2025-12-29T10:41:50.336Z</time>
</trkpt>
<trkpt lat="30.9388700" lon="35.3373600">
<ele>-296.079987</ele>
<time>2025-12-29T10:41:50.336Z</time>
</trkpt>
<trkpt lat="30.9389700" lon="35.3373700">
<ele>-294.910004</ele>
<time>2025-12-29T10:41:50.336Z</time>
</trkpt>
<trkpt lat="30.9392100" lon="35.3374500">
<ele>-293.440002</ele>
<time>2025-12-29T10:41:50.336Z</time>
</trkpt>
<trkpt lat="30.9392600" lon="35.3375000">
<ele>-293.980011</ele>
<time>2025-12-29T10:41:50.336Z</time>
</trkpt>
<trkpt lat="30.9393200" lon="35.3376700">
<ele>-297.040009</ele>
<time>2025-12-29T10:41:50.336Z</time>
</trkpt>
<trkpt lat="30.9395100" lon="35.3378700">
<ele>-296.010010</ele>
<time>2025-12-29T10:41:50.336Z</time>
</trkpt>
<trkpt lat="30.9395800" lon="35.3380100">
<ele>-295.309998</ele>
<time>2025-12-29T10:41:50.336Z</time>
</trkpt>
<trkpt lat="30.9397500" lon="35.3385400">
<ele>-293.000000</ele>
<time>2025-12-29T10:41:50.336Z</time>
</trkpt>
<trkpt lat="30.9398400" lon="35.3389900">
<ele>-288.500000</ele>
<time>2025-12-29T10:41:50.336Z</time>
</trkpt>
<trkpt lat="30.9398900" lon="35.3391300">
<ele>-287.450012</ele>
<time>2025-12-29T10:41:50.336Z</time>
</trkpt>
<trkpt lat="30.9400300" lon="35.3394000">
<ele>-287.619995</ele>
<time>2025-12-29T10:41:50.336Z</time>
</trkpt>
<trkpt lat="30.9401400" lon="35.3395300">
<ele>-290.369995</ele>
<time>2025-12-29T10:41:50.336Z</time>
</trkpt>
<trkpt lat="30.9402200" lon="35.3396000">
<ele>-292.100006</ele>
<time>2025-12-29T10:41:50.336Z</time>
</trkpt>
<trkpt lat="30.9404300" lon="35.3397300">
<ele>-297.269989</ele>
<time>2025-12-29T10:41:50.336Z</time>
</trkpt>
<trkpt lat="30.9405600" lon="35.3397800">
<ele>-299.759979</ele>
<time>2025-12-29T10:41:50.336Z</time>
</trkpt>
<trkpt lat="30.9406600" lon="35.3397800">
<ele>-299.989990</ele>
<time>2025-12-29T10:41:50.336Z</time>
</trkpt>
<trkpt lat="30.9408100" lon="35.3397300">
<ele>-300.910004</ele>
<time>2025-12-29T10:41:50.336Z</time>
</trkpt>
<trkpt lat="30.9409500" lon="35.3397300">
<ele>-296.339996</ele>
<time>2025-12-29T10:41:50.336Z</time>
</trkpt>
<trkpt lat="30.9410100" lon="35.3397700">
<ele>-293.929993</ele>
<time>2025-12-29T10:41:50.336Z</time>
</trkpt>
<trkpt lat="30.9410300" lon="35.3398700">
<ele>-293.119995</ele>
<time>2025-12-29T10:41:50.336Z</time>
</trkpt>
<trkpt lat="30.9409700" lon="35.3403100">
<ele>-290.210022</ele>
<time>2025-12-29T10:41:50.336Z</time>
</trkpt>
<trkpt lat="30.9409800" lon="35.3403900">
<ele>-289.519989</ele>
<time>2025-12-29T10:41:50.336Z</time>
</trkpt>
<trkpt lat="30.9410200" lon="35.3404800">
<ele>-289.130005</ele>
<time>2025-12-29T10:41:50.336Z</time>
</trkpt>
<trkpt lat="30.9410900" lon="35.3405600">
<ele>-289.709991</ele>
<time>2025-12-29T10:41:50.336Z</time>
</trkpt>
<trkpt lat="30.9412100" lon="35.3406000">
<ele>-289.919983</ele>
<time>2025-12-29T10:41:50.336Z</time>
</trkpt>
<trkpt lat="30.9415800" lon="35.3406700">
<ele>-289.950012</ele>
<time>2025-12-29T10:41:50.336Z</time>
</trkpt>
<trkpt lat="30.9416900" lon="35.3407300">
<ele>-289.500000</ele>
<time>2025-12-29T10:41:50.336Z</time>
</trkpt>
<trkpt lat="30.9417500" lon="35.3407800">
<ele>-287.920013</ele>
<time>2025-12-29T10:41:50.336Z</time>
</trkpt>
<trkpt lat="30.9417800" lon="35.3408700">
<ele>-287.139984</ele>
<time>2025-12-29T10:41:50.336Z</time>
</trkpt>
<trkpt lat="30.9417700" lon="35.3409600">
<ele>-287.029999</ele>
<time>2025-12-29T10:41:50.336Z</time>
</trkpt>
<trkpt lat="30.9417300" lon="35.3410400">
<ele>-288.029999</ele>
<time>2025-12-29T10:41:50.336Z</time>
</trkpt>
<trkpt lat="30.9414500" lon="35.3412000">
<ele>-291.989990</ele>
<time>2025-12-29T10:41:50.336Z</time>
</trkpt>
<trkpt lat="30.9413700" lon="35.3412700">
<ele>-292.940002</ele>
<time>2025-12-29T10:41:50.336Z</time>
</trkpt>
<trkpt lat="30.9413400" lon="35.3413400">
<ele>-292.940002</ele>
<time>2025-12-29T10:41:50.336Z</time>
</trkpt>
<trkpt lat="30.9413300" lon="35.3414600">
<ele>-293.109985</ele>
<time>2025-12-29T10:41:50.336Z</time>
</trkpt>
<trkpt lat="30.9413700" lon="35.3416200">
<ele>-293.109985</ele>
<time>2025-12-29T10:41:50.336Z</time>
</trkpt>
<trkpt lat="30.9414100" lon="35.3417000">
<ele>-292.460022</ele>
<time>2025-12-29T10:41:50.336Z</time>
</trkpt>
<trkpt lat="30.9415000" lon="35.3418100">
<ele>-289.619995</ele>
<time>2025-12-29T10:41:50.336Z</time>
</trkpt>
<trkpt lat="30.9416300" lon="35.3419300">
<ele>-284.570007</ele>
<time>2025-12-29T10:41:50.336Z</time>
</trkpt>
<trkpt lat="30.9417000" lon="35.3420400">
<ele>-282.160004</ele>
<time>2025-12-29T10:41:50.336Z</time>
</trkpt>
<trkpt lat="30.9417200" lon="35.3421500">
<ele>-281.660004</ele>
<time>2025-12-29T10:41:50.336Z</time>
</trkpt>
<trkpt lat="30.9417100" lon="35.3422200">
<ele>-281.910004</ele>
<time>2025-12-29T10:41:50.336Z</time>
</trkpt>
<trkpt lat="30.9416800" lon="35.3422900">
<ele>-282.899994</ele>
<time>2025-12-29T10:41:50.336Z</time>
</trkpt>
<trkpt lat="30.9416400" lon="35.3423400">
<ele>-284.440002</ele>
<time>2025-12-29T10:41:50.336Z</time>
</trkpt>
<trkpt lat="30.9415000" lon="35.3424100">
<ele>-289.869995</ele>
<time>2025-12-29T10:41:50.336Z</time>
</trkpt>
<trkpt lat="30.9413000" lon="35.3424200">
<ele>-293.769989</ele>
<time>2025-12-29T10:41:50.336Z</time>
</trkpt>
<trkpt lat="30.9412100" lon="35.3424800">
<ele>-293.399994</ele>
<time>2025-12-29T10:41:50.336Z</time>
</trkpt>
<trkpt lat="30.9411200" lon="35.3425800">
<ele>-292.160004</ele>
<time>2025-12-29T10:41:50.336Z</time>
</trkpt>
<trkpt lat="30.9413800" lon="35.3428600">
<ele>-289.089996</ele>
<time>2025-12-29T10:41:50.336Z</time>
</trkpt>
<trkpt lat="30.9414900" lon="35.3429500">
<ele>-287.589996</ele>
<time>2025-12-29T10:41:50.336Z</time>
</trkpt>
<trkpt lat="30.9418700" lon="35.3431800">
<ele>-288.920013</ele>
<time>2025-12-29T10:41:50.336Z</time>
</trkpt>
<trkpt lat="30.9420300" lon="35.3432500">
<ele>-293.230011</ele>
<time>2025-12-29T10:41:50.336Z</time>
</trkpt>
<trkpt lat="30.9422100" lon="35.3432900">
<ele>-298.519989</ele>
<time>2025-12-29T10:41:50.336Z</time>
</trkpt>
<trkpt lat="30.9425000" lon="35.3434800">
<ele>-300.940002</ele>
<time>2025-12-29T10:41:50.336Z</time>
</trkpt>
<trkpt lat="30.9428700" lon="35.3436100">
<ele>-304.649994</ele>
<time>2025-12-29T10:41:50.336Z</time>
</trkpt>
<trkpt lat="30.9430200" lon="35.3436800">
<ele>-303.970001</ele>
<time>2025-12-29T10:41:50.336Z</time>
</trkpt>
<trkpt lat="30.9431400" lon="35.3437700">
<ele>-302.700012</ele>
<time>2025-12-29T10:41:50.336Z</time>
</trkpt>
<trkpt lat="30.9432100" lon="35.3439000">
<ele>-304.100006</ele>
<time>2025-12-29T10:41:50.336Z</time>
</trkpt>
<trkpt lat="30.9432400" lon="35.3441200">
<ele>-306.759979</ele>
<time>2025-12-29T10:41:50.336Z</time>
</trkpt>
<trkpt lat="30.9432900" lon="35.3441700">
<ele>-308.679993</ele>
<time>2025-12-29T10:41:50.336Z</time>
</trkpt>
<trkpt lat="30.9433500" lon="35.3442100">
<ele>-309.170013</ele>
<time>2025-12-29T10:41:50.336Z</time>
</trkpt>
<trkpt lat="30.9436900" lon="35.3442900">
<ele>-309.510010</ele>
<time>2025-12-29T10:41:50.336Z</time>
</trkpt>
<trkpt lat="30.9437800" lon="35.3443500">
<ele>-310.290009</ele>
<time>2025-12-29T10:41:50.336Z</time>
</trkpt>
<trkpt lat="30.9438900" lon="35.3444800">
<ele>-313.330017</ele>
<time>2025-12-29T10:41:50.336Z</time>
</trkpt>
<trkpt lat="30.9440200" lon="35.3446700">
<ele>-311.510010</ele>
<time>2025-12-29T10:41:50.336Z</time>
</trkpt>
<trkpt lat="30.9441200" lon="35.3447600">
<ele>-308.750000</ele>
<time>2025-12-29T10:41:50.336Z</time>
</trkpt>
<trkpt lat="30.9442600" lon="35.3448500">
<ele>-301.760010</ele>
<time>2025-12-29T10:41:50.336Z</time>
</trkpt>
<trkpt lat="30.9443200" lon="35.3449200">
<ele>-298.790009</ele>
<time>2025-12-29T10:41:50.336Z</time>
</trkpt>
<trkpt lat="30.9443300" lon="35.3450100">
<ele>-297.119995</ele>
<time>2025-12-29T10:41:50.336Z</time>
</trkpt>
<trkpt lat="30.9443300" lon="35.3451600">
<ele>-295.369995</ele>
<time>2025-12-29T10:41:50.336Z</time>
</trkpt>
<trkpt lat="30.9443800" lon="35.3452100">
<ele>-294.660004</ele>
<time>2025-12-29T10:41:50.336Z</time>
</trkpt>
<trkpt lat="30.9444500" lon="35.3451900">
<ele>-294.549988</ele>
<time>2025-12-29T10:41:50.336Z</time>
</trkpt>
<trkpt lat="30.9445500" lon="35.3450900">
<ele>-293.830017</ele>
<time>2025-12-29T10:41:50.336Z</time>
</trkpt>
<trkpt lat="30.9446500" lon="35.3449300">
<ele>-292.170013</ele>
<time>2025-12-29T10:41:50.336Z</time>
</trkpt>
<trkpt lat="30.9447100" lon="35.3448700">
<ele>-289.959991</ele>
<time>2025-12-29T10:41:50.336Z</time>
</trkpt>
<trkpt lat="30.9448000" lon="35.3448200">
<ele>-287.820007</ele>
<time>2025-12-29T10:41:50.336Z</time>
</trkpt>
<trkpt lat="30.9449200" lon="35.3448200">
<ele>-286.369995</ele>
<time>2025-12-29T10:41:50.336Z</time>
</trkpt>
<trkpt lat="30.9449900" lon="35.3448600">
<ele>-286.109985</ele>
<time>2025-12-29T10:41:50.336Z</time>
</trkpt>
<trkpt lat="30.9451200" lon="35.3449700">
<ele>-286.899994</ele>
<time>2025-12-29T10:41:50.336Z</time>
</trkpt>
<trkpt lat="30.9455300" lon="35.3453300">
<ele>-296.019989</ele>
<time>2025-12-29T10:41:50.336Z</time>
</trkpt>
<trkpt lat="30.9457100" lon="35.3454400">
<ele>-297.559998</ele>
<time>2025-12-29T10:41:50.336Z</time>
</trkpt>
<trkpt lat="30.9458300" lon="35.3454800">
<ele>-299.920013</ele>
<time>2025-12-29T10:41:50.336Z</time>
</trkpt>
<trkpt lat="30.9459600" lon="35.3455000">
<ele>-302.829987</ele>
<time>2025-12-29T10:41:50.336Z</time>
</trkpt>
<trkpt lat="30.9460400" lon="35.3454800">
<ele>-304.670013</ele>
<time>2025-12-29T10:41:50.336Z</time>
</trkpt>
<trkpt lat="30.9463200" lon="35.3453100">
<ele>-307.979980</ele>
<time>2025-12-29T10:41:50.336Z</time>
</trkpt>
<trkpt lat="30.9463900" lon="35.3452900">
<ele>-308.130005</ele>
<time>2025-12-29T10:41:50.336Z</time>
</trkpt>
<trkpt lat="30.9464700" lon="35.3453200">
<ele>-308.299988</ele>
<time>2025-12-29T10:41:50.336Z</time>
</trkpt>
<trkpt lat="30.9465400" lon="35.3454200">
<ele>-309.829987</ele>
<time>2025-12-29T10:41:50.336Z</time>
</trkpt>
<trkpt lat="30.9466900" lon="35.3457800">
<ele>-309.519989</ele>
<time>2025-12-29T10:41:50.336Z</time>
</trkpt>
<trkpt lat="30.9467400" lon="35.3458300">
<ele>-308.500000</ele>
<time>2025-12-29T10:41:50.336Z</time>
</trkpt>
<trkpt lat="30.9468500" lon="35.3458400">
<ele>-307.480011</ele>
<time>2025-12-29T10:41:50.336Z</time>
</trkpt>
<trkpt lat="30.9469900" lon="35.3458000">
<ele>-307.330017</ele>
<time>2025-12-29T10:41:50.336Z</time>
</trkpt>
<trkpt lat="30.9471000" lon="35.3457000">
<ele>-307.660004</ele>
<time>2025-12-29T10:41:50.336Z</time>
</trkpt>
<trkpt lat="30.9471700" lon="35.3456700">
<ele>-307.890015</ele>
<time>2025-12-29T10:41:50.336Z</time>
</trkpt>
<trkpt lat="30.9472400" lon="35.3456800">
<ele>-308.360016</ele>
<time>2025-12-29T10:41:50.336Z</time>
</trkpt>
<trkpt lat="30.9473000" lon="35.3457300">
<ele>-309.199982</ele>
<time>2025-12-29T10:41:50.336Z</time>
</trkpt>
<trkpt lat="30.9473700" lon="35.3458500">
<ele>-311.579987</ele>
<time>2025-12-29T10:41:50.336Z</time>
</trkpt>
<trkpt lat="30.9474000" lon="35.3460200">
<ele>-312.239990</ele>
<time>2025-12-29T10:41:50.336Z</time>
</trkpt>
<trkpt lat="30.9474800" lon="35.3461700">
<ele>-313.160004</ele>
<time>2025-12-29T10:41:50.336Z</time>
</trkpt>
<trkpt lat="30.9475600" lon="35.3462300">
<ele>-311.630005</ele>
<time>2025-12-29T10:41:50.336Z</time>
</trkpt>
<trkpt lat="30.9476800" lon="35.3462400">
<ele>-311.220001</ele>
<time>2025-12-29T10:41:50.336Z</time>
</trkpt>
<trkpt lat="30.9479000" lon="35.3461600">
<ele>-309.679993</ele>
<time>2025-12-29T10:41:50.336Z</time>
</trkpt>
<trkpt lat="30.9480300" lon="35.3461400">
<ele>-306.790009</ele>
<time>2025-12-29T10:41:50.336Z</time>
</trkpt>
<trkpt lat="30.9480800" lon="35.3461700">
<ele>-305.139984</ele>
<time>2025-12-29T10:41:50.336Z</time>
</trkpt>
<trkpt lat="30.9481100" lon="35.3462300">
<ele>-304.080017</ele>
<time>2025-12-29T10:41:50.336Z</time>
</trkpt>
<trkpt lat="30.9480200" lon="35.3465400">
<ele>-307.309998</ele>
<time>2025-12-29T10:41:50.336Z</time>
</trkpt>
<trkpt lat="30.9479200" lon="35.3467500">
<ele>-305.389984</ele>
<time>2025-12-29T10:41:50.336Z</time>
</trkpt>
<trkpt lat="30.9479000" lon="35.3468800">
<ele>-304.890015</ele>
<time>2025-12-29T10:41:50.336Z</time>
</trkpt>
<trkpt lat="30.9479300" lon="35.3470000">
<ele>-305.570007</ele>
<time>2025-12-29T10:41:50.336Z</time>
</trkpt>
<trkpt lat="30.9479600" lon="35.3470500">
<ele>-306.269989</ele>
<time>2025-12-29T10:41:50.336Z</time>
</trkpt>
<trkpt lat="30.9480300" lon="35.3471100">
<ele>-307.339996</ele>
<time>2025-12-29T10:41:50.336Z</time>
</trkpt>
<trkpt lat="30.9480800" lon="35.3471200">
<ele>-307.589996</ele>
<time>2025-12-29T10:41:50.336Z</time>
</trkpt>
<trkpt lat="30.9483900" lon="35.3471100">
<ele>-305.389984</ele>
<time>2025-12-29T10:41:50.336Z</time>
</trkpt>
<trkpt lat="30.9484600" lon="35.3471500">
<ele>-304.270020</ele>
<time>2025-12-29T10:41:50.336Z</time>
</trkpt>
<trkpt lat="30.9485600" lon="35.3472500">
<ele>-303.979980</ele>
<time>2025-12-29T10:41:50.336Z</time>
</trkpt>
<trkpt lat="30.9486100" lon="35.3476100">
<ele>-312.770020</ele>
<time>2025-12-29T10:41:50.336Z</time>
</trkpt>
<trkpt lat="30.9486400" lon="35.3477600">
<ele>-316.019989</ele>
<time>2025-12-29T10:41:50.336Z</time>
</trkpt>
<trkpt lat="30.9487700" lon="35.3480000">
<ele>-315.630005</ele>
<time>2025-12-29T10:41:50.336Z</time>
</trkpt>
<trkpt lat="30.9489500" lon="35.3482500">
<ele>-314.419983</ele>
<time>2025-12-29T10:41:50.336Z</time>
</trkpt>
<trkpt lat="30.9490400" lon="35.3483600">
<ele>-314.329987</ele>
<time>2025-12-29T10:41:50.336Z</time>
</trkpt>
<trkpt lat="30.9492300" lon="35.3484600">
<ele>-315.750000</ele>
<time>2025-12-29T10:41:50.336Z</time>
</trkpt>
<trkpt lat="30.9492900" lon="35.3485300">
<ele>-316.839996</ele>
<time>2025-12-29T10:41:50.336Z</time>
</trkpt>
<trkpt lat="30.9493900" lon="35.3487000">
<ele>-317.230011</ele>
<time>2025-12-29T10:41:50.336Z</time>
</trkpt>
<trkpt lat="30.9494800" lon="35.3487300">
<ele>-317.270020</ele>
<time>2025-12-29T10:41:50.336Z</time>
</trkpt>
<trkpt lat="30.9497100" lon="35.3487000">
<ele>-316.440002</ele>
<time>2025-12-29T10:41:50.336Z</time>
</trkpt>
<trkpt lat="30.9497800" lon="35.3487300">
<ele>-316.049988</ele>
<time>2025-12-29T10:41:50.336Z</time>
</trkpt>
<trkpt lat="30.9498500" lon="35.3487900">
<ele>-316.110016</ele>
<time>2025-12-29T10:41:50.336Z</time>
</trkpt>
<trkpt lat="30.9499000" lon="35.3489200">
<ele>-316.800018</ele>
<time>2025-12-29T10:41:50.336Z</time>
</trkpt>
<trkpt lat="30.9499400" lon="35.3491000">
<ele>-316.859985</ele>
<time>2025-12-29T10:41:50.336Z</time>
</trkpt>
<trkpt lat="30.9500100" lon="35.3492500">
<ele>-317.579987</ele>
<time>2025-12-29T10:41:50.336Z</time>
</trkpt>
<trkpt lat="30.9501000" lon="35.3493400">
<ele>-318.869995</ele>
<time>2025-12-29T10:41:50.336Z</time>
</trkpt>
<trkpt lat="30.9502000" lon="35.3494000">
<ele>-321.009979</ele>
<time>2025-12-29T10:41:50.336Z</time>
</trkpt>
<trkpt lat="30.9502300" lon="35.3494500">
<ele>-321.699982</ele>
<time>2025-12-29T10:41:50.336Z</time>
</trkpt>
<trkpt lat="30.9502200" lon="35.3495200">
<ele>-320.239990</ele>
<time>2025-12-29T10:41:50.336Z</time>
</trkpt>
<trkpt lat="30.9501800" lon="35.3496300">
<ele>-317.429993</ele>
<time>2025-12-29T10:41:50.336Z</time>
</trkpt>
<trkpt lat="30.9501900" lon="35.3497100">
<ele>-316.309998</ele>
<time>2025-12-29T10:41:50.336Z</time>
</trkpt>
<trkpt lat="30.9502400" lon="35.3497700">
<ele>-316.450012</ele>
<time>2025-12-29T10:41:50.336Z</time>
</trkpt>
<trkpt lat="30.9503100" lon="35.3497900">
<ele>-317.199982</ele>
<time>2025-12-29T10:41:50.336Z</time>
</trkpt>
<trkpt lat="30.9503900" lon="35.3497700">
<ele>-317.850006</ele>
<time>2025-12-29T10:41:50.336Z</time>
</trkpt>
<trkpt lat="30.9505700" lon="35.3495600">
<ele>-316.440002</ele>
<time>2025-12-29T10:41:50.336Z</time>
</trkpt>
<trkpt lat="30.9506800" lon="35.3494900">
<ele>-309.399994</ele>
<time>2025-12-29T10:41:50.336Z</time>
</trkpt>
<trkpt lat="30.9507400" lon="35.3495000">
<ele>-306.110016</ele>
<time>2025-12-29T10:41:50.336Z</time>
</trkpt>
<trkpt lat="30.9507800" lon="35.3495300">
<ele>-304.239990</ele>
<time>2025-12-29T10:41:50.336Z</time>
</trkpt>
<trkpt lat="30.9508100" lon="35.3496200">
<ele>-303.820007</ele>
<time>2025-12-29T10:41:50.336Z</time>
</trkpt>
<trkpt lat="30.9508100" lon="35.3497100">
<ele>-305.089996</ele>
<time>2025-12-29T10:41:50.336Z</time>
</trkpt>
<trkpt lat="30.9507900" lon="35.3498300">
<ele>-307.200012</ele>
<time>2025-12-29T10:41:50.336Z</time>
</trkpt>
<trkpt lat="30.9505200" lon="35.3503900">
<ele>-322.869995</ele>
<time>2025-12-29T10:41:50.336Z</time>
</trkpt>
<trkpt lat="30.9504900" lon="35.3504700">
<ele>-323.339996</ele>
<time>2025-12-29T10:41:50.336Z</time>
</trkpt>
<trkpt lat="30.9504800" lon="35.3505500">
<ele>-324.450012</ele>
<time>2025-12-29T10:41:50.336Z</time>
</trkpt>
<trkpt lat="30.9505100" lon="35.3506300">
<ele>-325.840027</ele>
<time>2025-12-29T10:41:50.336Z</time>
</trkpt>
<trkpt lat="30.9505600" lon="35.3506800">
<ele>-327.369995</ele>
<time>2025-12-29T10:41:50.336Z</time>
</trkpt>
<trkpt lat="30.9507100" lon="35.3507700">
<ele>-325.289978</ele>
<time>2025-12-29T10:41:50.336Z</time>
</trkpt>
<trkpt lat="30.9507600" lon="35.3508100">
<ele>-324.850006</ele>
<time>2025-12-29T10:41:50.336Z</time>
</trkpt>
<trkpt lat="30.9507900" lon="35.3508800">
<ele>-324.570007</ele>
<time>2025-12-29T10:41:50.336Z</time>
</trkpt>
<trkpt lat="30.9508000" lon="35.3509900">
<ele>-324.340027</ele>
<time>2025-12-29T10:41:50.336Z</time>
</trkpt>
<trkpt lat="30.9507600" lon="35.3511800">
<ele>-324.019989</ele>
<time>2025-12-29T10:41:50.336Z</time>
</trkpt>
<trkpt lat="30.9507600" lon="35.3512900">
<ele>-323.199982</ele>
<time>2025-12-29T10:41:50.336Z</time>
</trkpt>
<trkpt lat="30.9507800" lon="35.3513800">
<ele>-322.670013</ele>
<time>2025-12-29T10:41:50.336Z</time>
</trkpt>
<trkpt lat="30.9508400" lon="35.3514900">
<ele>-323.510010</ele>
<time>2025-12-29T10:41:50.336Z</time>
</trkpt>
<trkpt lat="30.9510600" lon="35.3517000">
<ele>-322.379974</ele>
<time>2025-12-29T10:41:50.336Z</time>
</trkpt>
<trkpt lat="30.9511100" lon="35.3517700">
<ele>-323.610016</ele>
<time>2025-12-29T10:41:50.336Z</time>
</trkpt>
<trkpt lat="30.9512700" lon="35.3521500">
<ele>-326.549988</ele>
<time>2025-12-29T10:41:50.336Z</time>
</trkpt>
<trkpt lat="30.9514000" lon="35.3523900">
<ele>-325.750000</ele>
<time>2025-12-29T10:41:50.336Z</time>
</trkpt>
<trkpt lat="30.9514600" lon="35.3524500">
<ele>-325.499969</ele>
<time>2025-12-29T10:41:50.336Z</time>
</trkpt>
<trkpt lat="30.9515800" lon="35.3524700">
<ele>-326.000000</ele>
<time>2025-12-29T10:41:50.336Z</time>
</trkpt>
<trkpt lat="30.9518300" lon="35.3524900">
<ele>-326.699982</ele>
<time>2025-12-29T10:41:50.336Z</time>
</trkpt>
<trkpt lat="30.9521000" lon="35.3525800">
<ele>-320.990021</ele>
<time>2025-12-29T10:41:50.336Z</time>
</trkpt>
<trkpt lat="30.9521700" lon="35.3526300">
<ele>-319.360016</ele>
<time>2025-12-29T10:41:50.336Z</time>
</trkpt>
<trkpt lat="30.9522000" lon="35.3527400">
<ele>-320.589996</ele>
<time>2025-12-29T10:41:50.336Z</time>
</trkpt>
<trkpt lat="30.9522100" lon="35.3529900">
<ele>-321.739990</ele>
<time>2025-12-29T10:41:50.336Z</time>
</trkpt>
<trkpt lat="30.9522200" lon="35.3530700">
<ele>-321.829987</ele>
<time>2025-12-29T10:41:50.336Z</time>
</trkpt>
<trkpt lat="30.9522500" lon="35.3531500">
<ele>-320.690002</ele>
<time>2025-12-29T10:41:50.336Z</time>
</trkpt>
<trkpt lat="30.9522800" lon="35.3531900">
<ele>-320.209991</ele>
<time>2025-12-29T10:41:50.336Z</time>
</trkpt>
<trkpt lat="30.9523500" lon="35.3532300">
<ele>-319.959991</ele>
<time>2025-12-29T10:41:50.336Z</time>
</trkpt>
<trkpt lat="30.9525800" lon="35.3532900">
<ele>-318.720001</ele>
<time>2025-12-29T10:41:50.336Z</time>
</trkpt>
<trkpt lat="30.9526500" lon="35.3533300">
<ele>-317.600006</ele>
<time>2025-12-29T10:41:50.336Z</time>
</trkpt>
<trkpt lat="30.9527600" lon="35.3534300">
<ele>-314.769989</ele>
<time>2025-12-29T10:41:50.336Z</time>
</trkpt>
<trkpt lat="30.9528000" lon="35.3536200">
<ele>-314.209991</ele>
<time>2025-12-29T10:41:50.336Z</time>
</trkpt>
<trkpt lat="30.9527900" lon="35.3539400">
<ele>-313.920013</ele>
<time>2025-12-29T10:41:50.336Z</time>
</trkpt>
<trkpt lat="30.9528200" lon="35.3540100">
<ele>-312.770020</ele>
<time>2025-12-29T10:41:50.336Z</time>
</trkpt>
<trkpt lat="30.9528600" lon="35.3540700">
<ele>-312.470001</ele>
<time>2025-12-29T10:41:50.336Z</time>
</trkpt>
<trkpt lat="30.9529600" lon="35.3541100">
<ele>-313.869995</ele>
<time>2025-12-29T10:41:50.336Z</time>
</trkpt>
<trkpt lat="30.9531700" lon="35.3541400">
<ele>-316.149994</ele>
<time>2025-12-29T10:41:50.336Z</time>
</trkpt>
<trkpt lat="30.9533600" lon="35.3541400">
<ele>-315.420013</ele>
<time>2025-12-29T10:41:50.336Z</time>
</trkpt>
<trkpt lat="30.9534600" lon="35.3541700">
<ele>-313.829987</ele>
<time>2025-12-29T10:41:50.336Z</time>
</trkpt>
<trkpt lat="30.9535100" lon="35.3542200">
<ele>-313.139984</ele>
<time>2025-12-29T10:41:50.336Z</time>
</trkpt>
<trkpt lat="30.9535400" lon="35.3542900">
<ele>-313.550018</ele>
<time>2025-12-29T10:41:50.336Z</time>
</trkpt>
<trkpt lat="30.9536900" lon="35.3549700">
<ele>-314.610016</ele>
<time>2025-12-29T10:41:50.336Z</time>
</trkpt>
<trkpt lat="30.9537900" lon="35.3552700">
<ele>-313.320007</ele>
<time>2025-12-29T10:41:50.336Z</time>
</trkpt>
<trkpt lat="30.9538900" lon="35.3553900">
<ele>-315.220001</ele>
<time>2025-12-29T10:41:50.336Z</time>
</trkpt>
<trkpt lat="30.9542000" lon="35.3556000">
<ele>-319.000000</ele>
<time>2025-12-29T10:41:50.336Z</time>
</trkpt>
<trkpt lat="30.9545400" lon="35.3559600">
<ele>-318.770020</ele>
<time>2025-12-29T10:41:50.336Z</time>
</trkpt>
<trkpt lat="30.9548200" lon="35.3564300">
<ele>-319.190002</ele>
<time>2025-12-29T10:41:50.336Z</time>
</trkpt>
<trkpt lat="30.9550900" lon="35.3570100">
<ele>-322.089996</ele>
<time>2025-12-29T10:41:50.336Z</time>
</trkpt>
<trkpt lat="30.9552800" lon="35.3572900">
<ele>-324.220001</ele>
<time>2025-12-29T10:41:50.336Z</time>
</trkpt>
<trkpt lat="30.9554700" lon="35.3574600">
<ele>-325.049988</ele>
<time>2025-12-29T10:41:50.336Z</time>
</trkpt>
<trkpt lat="30.9557000" lon="35.3577200">
<ele>-326.770020</ele>
<time>2025-12-29T10:41:50.336Z</time>
</trkpt>
<trkpt lat="30.9559000" lon="35.3578900">
<ele>-326.990021</ele>
<time>2025-12-29T10:41:50.336Z</time>
</trkpt>
<trkpt lat="30.9559700" lon="35.3579800">
<ele>-326.260010</ele>
<time>2025-12-29T10:41:50.336Z</time>
</trkpt>
<trkpt lat="30.9561200" lon="35.3583600">
<ele>-328.260010</ele>
<time>2025-12-29T10:41:50.336Z</time>
</trkpt>
<trkpt lat="30.9561800" lon="35.3586900">
<ele>-331.530029</ele>
<time>2025-12-29T10:41:50.336Z</time>
</trkpt>
<trkpt lat="30.9563200" lon="35.3590800">
<ele>-335.709991</ele>
<time>2025-12-29T10:41:50.336Z</time>
</trkpt>
<trkpt lat="30.9564400" lon="35.3595400">
<ele>-339.889984</ele>
<time>2025-12-29T10:41:50.336Z</time>
</trkpt>
<trkpt lat="30.9565200" lon="35.3602400">
<ele>-343.479980</ele>
<time>2025-12-29T10:41:50.336Z</time>
</trkpt>
<trkpt lat="30.9566000" lon="35.3603900">
<ele>-342.759979</ele>
<time>2025-12-29T10:41:50.336Z</time>
</trkpt>
<trkpt lat="30.9566100" lon="35.3605000">
<ele>-341.869995</ele>
<time>2025-12-29T10:41:50.336Z</time>
</trkpt>
<trkpt lat="30.9565400" lon="35.3607600">
<ele>-339.830017</ele>
<time>2025-12-29T10:41:50.336Z</time>
</trkpt>
<trkpt lat="30.9565500" lon="35.3611700">
<ele>-343.760010</ele>
<time>2025-12-29T10:41:50.336Z</time>
</trkpt>
<trkpt lat="30.9565300" lon="35.3613000">
<ele>-346.250000</ele>
<time>2025-12-29T10:41:50.336Z</time>
</trkpt>
<trkpt lat="30.9564800" lon="35.3614600">
<ele>-349.019989</ele>
<time>2025-12-29T10:41:50.336Z</time>
</trkpt>
<trkpt lat="30.9564800" lon="35.3615900">
<ele>-351.510010</ele>
<time>2025-12-29T10:41:50.336Z</time>
</trkpt>
<trkpt lat="30.9565000" lon="35.3617600">
<ele>-353.669983</ele>
<time>2025-12-29T10:41:50.336Z</time>
</trkpt>
<trkpt lat="30.9565400" lon="35.3619100">
<ele>-354.980011</ele>
<time>2025-12-29T10:41:50.336Z</time>
</trkpt>
<trkpt lat="30.9565700" lon="35.3619800">
<ele>-355.989990</ele>
<time>2025-12-29T10:41:50.336Z</time>
</trkpt>
<trkpt lat="30.9567100" lon="35.3621700">
<ele>-360.369995</ele>
<time>2025-12-29T10:41:50.336Z</time>
</trkpt>
<trkpt lat="30.9567300" lon="35.3622600">
<ele>-361.500031</ele>
<time>2025-12-29T10:41:50.336Z</time>
</trkpt>
<trkpt lat="30.9566800" lon="35.3625800">
<ele>-363.059998</ele>
<time>2025-12-29T10:41:50.336Z</time>
</trkpt>
<trkpt lat="30.9567000" lon="35.3627100">
<ele>-363.210022</ele>
<time>2025-12-29T10:41:50.336Z</time>
</trkpt>
<trkpt lat="30.9567600" lon="35.3628600">
<ele>-363.670013</ele>
<time>2025-12-29T10:41:50.336Z</time>
</trkpt>
<trkpt lat="30.9568400" lon="35.3632400">
<ele>-365.160004</ele>
<time>2025-12-29T10:41:50.336Z</time>
</trkpt>
<trkpt lat="30.9568700" lon="35.3633600">
<ele>-366.019989</ele>
<time>2025-12-29T10:41:50.336Z</time>
</trkpt>
<trkpt lat="30.9569400" lon="35.3634200">
<ele>-366.920013</ele>
<time>2025-12-29T10:41:50.336Z</time>
</trkpt>
<trkpt lat="30.9570400" lon="35.3634500">
<ele>-367.400024</ele>
<time>2025-12-29T10:41:50.336Z</time>
</trkpt>
<trkpt lat="30.9571000" lon="35.3635000">
<ele>-368.139984</ele>
<time>2025-12-29T10:41:50.336Z</time>
</trkpt>
<trkpt lat="30.9571200" lon="35.3636500">
<ele>-370.140015</ele>
<time>2025-12-29T10:41:50.336Z</time>
</trkpt>
<trkpt lat="30.9567900" lon="35.3636600">
<ele>-368.970001</ele>
<time>2025-12-29T10:41:50.336Z</time>
</trkpt>
<trkpt lat="30.9559800" lon="35.3636600">
<ele>-367.839996</ele>
<time>2025-12-29T10:41:50.336Z</time>
</trkpt>
<trkpt lat="30.9559800" lon="35.3638700">
<ele>-371.219971</ele>
<time>2025-12-29T10:41:50.336Z</time>
</trkpt>
<trkpt lat="30.9560500" lon="35.3639000">
<ele>-371.770020</ele>
<time>2025-12-29T10:41:50.336Z</time>
</trkpt>
<trkpt lat="30.9561200" lon="35.3638900">
<ele>-372.000000</ele>
<time>2025-12-29T10:41:50.336Z</time>
</trkpt>
<trkpt lat="30.9561200" lon="35.3638900">
<ele>-372.000000</ele>
<time>2025-12-29T10:41:50.336Z</time>
</trkpt>
<trkpt lat="30.9560500" lon="35.3639000">
<ele>-371.770020</ele>
<time>2025-12-29T10:41:50.336Z</time>
</trkpt>
<trkpt lat="30.9559800" lon="35.3638700">
<ele>-371.219971</ele>
<time>2025-12-29T10:41:50.336Z</time>
</trkpt>
<trkpt lat="30.9559800" lon="35.3636600">
<ele>-367.839996</ele>
<time>2025-12-29T10:41:50.336Z</time>
</trkpt>
<trkpt lat="30.9567900" lon="35.3636600">
<ele>-368.970001</ele>
<time>2025-12-29T10:41:50.336Z</time>
</trkpt>
<trkpt lat="30.9571200" lon="35.3636500">
<ele>-370.140015</ele>
<time>2025-12-29T10:41:50.336Z</time>
</trkpt>
<trkpt lat="30.9574600" lon="35.3636600">
<ele>-371.260010</ele>
<time>2025-12-29T10:41:50.336Z</time>
</trkpt>
<trkpt lat="30.9575800" lon="35.3636400">
<ele>-371.470001</ele>
<time>2025-12-29T10:41:50.336Z</time>
</trkpt>
<trkpt lat="30.9577500" lon="35.3635600">
<ele>-371.510010</ele>
<time>2025-12-29T10:41:50.336Z</time>
</trkpt>
<trkpt lat="30.9577500" lon="35.3640700">
<ele>-374.890015</ele>
<time>2025-12-29T10:41:50.336Z</time>
</trkpt>
<trkpt lat="30.9574200" lon="35.3648500">
<ele>-376.839996</ele>
<time>2025-12-29T10:41:50.336Z</time>
</trkpt>
<trkpt lat="30.9569100" lon="35.3662200">
<ele>-375.920013</ele>
<time>2025-12-29T10:41:50.336Z</time>
</trkpt>
<trkpt lat="30.9563600" lon="35.3671300">
<ele>-377.100006</ele>
<time>2025-12-29T10:41:50.336Z</time>
</trkpt>
<trkpt lat="30.9559600" lon="35.3678600">
<ele>-378.950012</ele>
<time>2025-12-29T10:41:50.336Z</time>
</trkpt>
<trkpt lat="30.9555800" lon="35.3688000">
<ele>-378.910004</ele>
<time>2025-12-29T10:41:50.336Z</time>
</trkpt>
<trkpt lat="30.9551700" lon="35.3698500">
<ele>-378.509979</ele>
<time>2025-12-29T10:41:50.336Z</time>
</trkpt>
<trkpt lat="30.9547700" lon="35.3709900">
<ele>-377.729980</ele>
<time>2025-12-29T10:41:50.336Z</time>
</trkpt>
<trkpt lat="30.9546000" lon="35.3718100">
<ele>-379.090027</ele>
<time>2025-12-29T10:41:50.336Z</time>
</trkpt>
<trkpt lat="30.9542300" lon="35.3732600">
<ele>-378.089996</ele>
<time>2025-12-29T10:41:50.336Z</time>
</trkpt>
<trkpt lat="30.9536700" lon="35.3764800">
<ele>-379.980011</ele>
<time>2025-12-29T10:41:50.336Z</time>
</trkpt>
<trkpt lat="30.9535000" lon="35.3783500">
<ele>-376.269989</ele>
<time>2025-12-29T10:41:50.336Z</time>
</trkpt>
<trkpt lat="30.9533700" lon="35.3785400">
<ele>-377.800018</ele>
<time>2025-12-29T10:41:50.336Z</time>
</trkpt>
<trkpt lat="30.9532900" lon="35.3783500">
<ele>-378.459991</ele>
<time>2025-12-29T10:41:50.336Z</time>
</trkpt>
<trkpt lat="30.9532400" lon="35.3783100">
<ele>-378.920013</ele>
<time>2025-12-29T10:41:50.336Z</time>
</trkpt>
<trkpt lat="30.9532400" lon="35.3783100">
<ele>-378.920013</ele>
<time>2025-12-29T10:41:50.336Z</time>
</trkpt>
<trkpt lat="30.9507700" lon="35.3760900">
<ele>-372.769989</ele>
<time>2025-12-29T10:41:50.336Z</time>
</trkpt>
<trkpt lat="30.9473800" lon="35.3730000">
<ele>-367.309998</ele>
<time>2025-12-29T10:41:50.336Z</time>
</trkpt>
<trkpt lat="30.9445600" lon="35.3705000">
<ele>-360.980011</ele>
<time>2025-12-29T10:41:50.336Z</time>
</trkpt>
<trkpt lat="30.9440700" lon="35.3702000">
<ele>-356.220001</ele>
<time>2025-12-29T10:41:50.336Z</time>
</trkpt>
<trkpt lat="30.9433100" lon="35.3701400">
<ele>-356.000000</ele>
<time>2025-12-29T10:41:50.336Z</time>
</trkpt>
<trkpt lat="30.9431000" lon="35.3701500">
<ele>-356.069977</ele>
<time>2025-12-29T10:41:50.336Z</time>
</trkpt>
<trkpt lat="30.9429400" lon="35.3702600">
<ele>-356.899994</ele>
<time>2025-12-29T10:41:50.336Z</time>
</trkpt>
<trkpt lat="30.9427800" lon="35.3705000">
<ele>-357.009979</ele>
<time>2025-12-29T10:41:50.336Z</time>
</trkpt>
<trkpt lat="30.9425800" lon="35.3707000">
<ele>-355.949982</ele>
<time>2025-12-29T10:41:50.336Z</time>
</trkpt>
<trkpt lat="30.9421800" lon="35.3701800">
<ele>-354.799988</ele>
<time>2025-12-29T10:41:50.336Z</time>
</trkpt>
<trkpt lat="30.9420400" lon="35.3699800">
<ele>-354.540009</ele>
<time>2025-12-29T10:41:50.336Z</time>
</trkpt>
<trkpt lat="30.9418900" lon="35.3696800">
<ele>-352.800018</ele>
<time>2025-12-29T10:41:50.336Z</time>
</trkpt>
<trkpt lat="30.9418200" lon="35.3694900">
<ele>-352.550018</ele>
<time>2025-12-29T10:41:50.336Z</time>
</trkpt>
<trkpt lat="30.9417900" lon="35.3693900">
<ele>-352.750000</ele>
<time>2025-12-29T10:41:50.336Z</time>
</trkpt>
<trkpt lat="30.9418000" lon="35.3692900">
<ele>-353.329987</ele>
<time>2025-12-29T10:41:50.336Z</time>
</trkpt>
<trkpt lat="30.9418200" lon="35.3692100">
<ele>-353.769989</ele>
<time>2025-12-29T10:41:50.336Z</time>
</trkpt>
<trkpt lat="30.9418200" lon="35.3691300">
<ele>-354.130005</ele>
<time>2025-12-29T10:41:50.336Z</time>
</trkpt>
<trkpt lat="30.9418100" lon="35.3691000">
<ele>-354.239990</ele>
<time>2025-12-29T10:41:50.336Z</time>
</trkpt>
<trkpt lat="30.9418300" lon="35.3690100">
<ele>-354.560028</ele>
<time>2025-12-29T10:41:50.336Z</time>
</trkpt>
<trkpt lat="30.9418500" lon="35.3689400">
<ele>-354.820007</ele>
<time>2025-12-29T10:41:50.336Z</time>
</trkpt>
<trkpt lat="30.9418900" lon="35.3688500">
<ele>-354.970001</ele>
<time>2025-12-29T10:41:50.336Z</time>
</trkpt>
<trkpt lat="30.9419900" lon="35.3686800">
<ele>-355.000000</ele>
<time>2025-12-29T10:41:50.336Z</time>
</trkpt>
<trkpt lat="30.9420700" lon="35.3685200">
<ele>-355.000000</ele>
<time>2025-12-29T10:41:50.336Z</time>
</trkpt>
<trkpt lat="30.9420400" lon="35.3684300">
<ele>-355.000000</ele>
<time>2025-12-29T10:41:50.336Z</time>
</trkpt>
<trkpt lat="30.9419500" lon="35.3682400">
<ele>-355.339996</ele>
<time>2025-12-29T10:41:50.336Z</time>
</trkpt>
<trkpt lat="30.9419700" lon="35.3682300">
<ele>-355.370026</ele>
<time>2025-12-29T10:41:50.336Z</time>
</trkpt>
</trkseg>
</trk>
</gpx>
